| time (UTC) | temp C | wind direction | speed KPH | gust KPH | rain 1hr cm | rain 24hr cm | rain mn cm | humidity % | barometer mb |
| 20260904131528 | 28 | 207 | 0.0 | 0.0 | 0.00 | 0.00 | 0.00 | 82 | 999.6 |
| 20260904131359 | 28 | 207 | 0.0 | 0.0 | 0.00 | 0.00 | 0.00 | 82 | 999.6 |
| 20260904131258 | 28 | 208 | 0.0 | 0.0 | 0.00 | 0.00 | 0.00 | 82 | 999.9 |
| 20260904131158 | 28 | 208 | 0.0 | 0.0 | 0.00 | 0.00 | 0.00 | 81 | 999.7 |
| 20260904131058 | 28 | 208 | 1.6 | 3.2 | 0.00 | 0.00 | 0.00 | 81 | 999.7 |
| 20260904130929 | 28 | 200 | 0.0 | 1.6 | 0.00 | 0.00 | 0.00 | 81 | 999.7 |
| 20260904130828 | 28 | 201 | 0.0 | 1.6 | 0.00 | 0.00 | 0.00 | 81 | 999.8 |
| 20260904130728 | 28 | 201 | 0.0 | 0.0 | 0.00 | 0.00 | 0.00 | 82 | 999.8 |
| 20260904130628 | 28 | 201 | 0.0 | 0.0 | 0.00 | 0.00 | 0.00 | 83 | 999.7 |
| 20260904130501 | 28 | 201 | 0.0 | 0.0 | 0.00 | 0.00 | 0.00 | 83 | 999.9 |
| 20260904130358 | 28 | 201 | 0.0 | 1.6 | 0.00 | 0.00 | 0.00 | 83 | 999.8 |
| 20260904130258 | 27 | 173 | 0.0 | 1.6 | 0.00 | 0.00 | 0.00 | 82 | 999.8 |
| 20260904130158 | 27 | 172 | 0.0 | 3.2 | 0.00 | 0.00 | 0.00 | 83 | 999.8 |
| 20260904130029 | 27 | 166 | 0.0 | 1.6 | 0.00 | 0.00 | 0.00 | 83 | 999.7 |
| 20260904125928 | 27 | 161 | 0.0 | 0.0 | 0.00 | 0.00 | 0.00 | 84 | 999.9 |
| 20260904125828 | 27 | 161 | 0.0 | 0.0 | 0.00 | 0.00 | 0.00 | 84 | 999.8 |
| 20260904125728 | 27 | 161 | 0.0 | 1.6 | 0.00 | 0.00 | 0.00 | 83 | 999.6 |
| 20260904125628 | 27 | 161 | 0.0 | 0.0 | 0.00 | 0.00 | 0.00 | 85 | 999.9 |
| 20260904125528 | 27 | 161 | 0.0 | 0.0 | 0.00 | 0.00 | 0.00 | 85 | 999.7 |
| 20260904125428 | 27 | 161 | 0.0 | 0.0 | 0.00 | 0.00 | 0.00 | 86 | 999.7 |
| 20260904125259 | 27 | 161 | 0.0 | 0.0 | 0.00 | 0.00 | 0.00 | 86 | 999.8 |
| 20260904125158 | 27 | 161 | 0.0 | 0.0 | 0.00 | 0.00 | 0.00 | 88 | 999.6 |
| 20260904125058 | 27 | 161 | 0.0 | 0.0 | 0.00 | 0.00 | 0.00 | 88 | 999.6 |
| 20260904124958 | 27 | 161 | 0.0 | 0.0 | 0.00 | 0.00 | 0.00 | 88 | 999.6 |
| 20260904124828 | 27 | 161 | 0.0 | 0.0 | 0.00 | 0.00 | 0.00 | 90 | 999.9 |
| 20260904124728 | 27 | 161 | 0.0 | 0.0 | 0.00 | 0.00 | 0.00 | 89 | 999.9 |
| 20260904124628 | 26 | 161 | 0.0 | 0.0 | 0.00 | 0.00 | 0.00 | 89 | 999.8 |
| 20260904124528 | 26 | 161 | 0.0 | 0.0 | 0.00 | 0.00 | 0.00 | 90 | 999.7 |
| 20260904124359 | 26 | 161 | 0.0 | 0.0 | 0.00 | 0.00 | 0.00 | 90 | 999.8 |
| 20260904124229 | 26 | 161 | 0.0 | 0.0 | 0.00 | 0.00 | 0.00 | 91 | 999.7 |
| 20260904124128 | 26 | 161 | 0.0 | 0.0 | 0.00 | 0.00 | 0.00 | 91 | 999.7 |
| 20260904124028 | 26 | 161 | 0.0 | 0.0 | 0.00 | 0.00 | 0.00 | 91 | 999.6 |
| 20260904123928 | 26 | 161 | 0.0 | 0.0 | 0.00 | 0.00 | 0.00 | 91 | 999.7 |
| 20260904123800 | 25 | 161 | 1.6 | 1.6 | 0.00 | 0.00 | 0.00 | 93 | 999.6 |
| 20260904123658 | 25 | 161 | 0.0 | 1.6 | 0.00 | 0.00 | 0.00 | 93 | 999.8 |
| 20260904123558 | 25 | 161 | 0.0 | 0.0 | 0.00 | 0.00 | 0.00 | 94 | 999.7 |
| 20260904123458 | 25 | 161 | 0.0 | 0.0 | 0.00 | 0.00 | 0.00 | 95 | 999.6 |
| 20260904123329 | 25 | 161 | 0.0 | 0.0 | 0.00 | 0.00 | 0.00 | 95 | 999.6 |
| 20260904123228 | 25 | 161 | 0.0 | 0.0 | 0.00 | 0.00 | 0.00 | 95 | 999.8 |
| 20260904123128 | 25 | 161 | 0.0 | 0.0 | 0.00 | 0.00 | 0.00 | 96 | 999.4 |
| 20260904123028 | 25 | 161 | 0.0 | 0.0 | 0.00 | 0.00 | 0.00 | 96 | 999.5 |
| 20260904122928 | 24 | 161 | 0.0 | 0.0 | 0.00 | 0.00 | 0.00 | 97 | 999.8 |
| 20260904122758 | 24 | 161 | 0.0 | 0.0 | 0.00 | 0.00 | 0.00 | 97 | 999.7 |
| 20260904122658 | 24 | 161 | 0.0 | 0.0 | 0.00 | 0.00 | 0.00 | 98 | 999.5 |
| 20260904122558 | 24 | 161 | 0.0 | 0.0 | 0.00 | 0.00 | 0.00 | 98 | 999.6 |
| 20260904122429 | 24 | 161 | 0.0 | 0.0 | 0.00 | 0.00 | 0.00 | 98 | 999.3 |
| 20260904122259 | 24 | 161 | 0.0 | 0.0 | 0.00 | 0.00 | 0.00 | 98 | 999.7 |
| 20260904122129 | 23 | 161 | 0.0 | 0.0 | 0.00 | 0.00 | 0.00 | 98 | 999.4 |
| 20260904121958 | 23 | 161 | 0.0 | 0.0 | 0.00 | 0.00 | 0.00 | 99 | 999.5 |
| 20260904121858 | 23 | 161 | 0.0 | 0.0 | 0.00 | 0.00 | 0.00 | 99 | 999.5 |
| 20260904121758 | 23 | 161 | 0.0 | 0.0 | 0.00 | 0.00 | 0.00 | 99 | 999.5 |
| 20260904121658 | 23 | 161 | 0.0 | 0.0 | 0.00 | 0.00 | 0.00 | 99 | 999.4 |
| 20260904121529 | 23 | 161 | 0.0 | 0.0 | 0.00 | 0.00 | 0.00 | 99 | 999.3 |
| 20260904121428 | 23 | 161 | 0.0 | 0.0 | 0.00 | 0.00 | 0.00 | 99 | 999.4 |
| 20260904121328 | 23 | 161 | 0.0 | 0.0 | 0.00 | 0.00 | 0.00 | 99 | 999.2 |
| 20260904121229 | 23 | 161 | 0.0 | 0.0 | 0.00 | 0.00 | 0.00 | 99 | 999.3 |
| 20260904121059 | 23 | 161 | 0.0 | 0.0 | 0.00 | 0.00 | 0.00 | 99 | 999.6 |
| 20260904120958 | 23 | 161 | 0.0 | 0.0 | 0.00 | 0.00 | 0.00 | 99 | 999.4 |
| 20260904120858 | 23 | 161 | 0.0 | 0.0 | 0.00 | 0.00 | 0.00 | 99 | 999.3 |
| 20260904120729 | 23 | 161 | 0.0 | 0.0 | 0.00 | 0.00 | 0.00 | 99 | 999.3 |
| 20260904120629 | 23 | 161 | 0.0 | 0.0 | 0.00 | 0.00 | 0.00 | 99 | 999.4 |
| 20260904120528 | 23 | 161 | 0.0 | 0.0 | 0.00 | 0.00 | 0.00 | 99 | 999.3 |
| 20260904120428 | 23 | 161 | 0.0 | 0.0 | 0.00 | 0.00 | 0.00 | 99 | 999.4 |
| 20260904120328 | 23 | 161 | 0.0 | 0.0 | 0.00 | 0.00 | 0.00 | 99 | 999.3 |
| 20260904120200 | 23 | 161 | 0.0 | 0.0 | 0.00 | 0.00 | 0.00 | 99 | 999.3 |
| 20260904120033 | 23 | 161 | 0.0 | 0.0 | 0.00 | 0.00 | 0.00 | 99 | 999.3 |
| 20260904115858 | 23 | 161 | 0.0 | 0.0 | 0.00 | 0.00 | 0.00 | 99 | 999.1 |
| 20260904115758 | 23 | 161 | 0.0 | 0.0 | 0.00 | 0.00 | 0.00 | 99 | 999.2 |
| 20260904115658 | 23 | 161 | 0.0 | 0.0 | 0.00 | 0.00 | 0.00 | 99 | 999.3 |
| 20260904115558 | 23 | 161 | 0.0 | 0.0 | 0.00 | 0.00 | 0.00 | 99 | 999.3 |
| 20260904115458 | 23 | 161 | 0.0 | 0.0 | 0.00 | 0.00 | 0.00 | 99 | 999.4 |
| 20260904115329 | 23 | 161 | 0.0 | 0.0 | 0.00 | 0.00 | 0.00 | 99 | 999.2 |
| 20260904115159 | 23 | 161 | 0.0 | 0.0 | 0.00 | 0.00 | 0.00 | 99 | 999.3 |
| 20260904115028 | 23 | 161 | 0.0 | 0.0 | 0.00 | 0.00 | 0.00 | 99 | 999.1 |
| 20260904114859 | 23 | 161 | 0.0 | 0.0 | 0.00 | 0.00 | 0.00 | 99 | 999.3 |
| 20260904114758 | 23 | 161 | 0.0 | 0.0 | 0.00 | 0.00 | 0.00 | 99 | 999.0 |
| 20260904114658 | 23 | 161 | 0.0 | 0.0 | 0.00 | 0.00 | 0.00 | 99 | 999.3 |
| 20260904114558 | 23 | 161 | 0.0 | 0.0 | 0.00 | 0.00 | 0.00 | 99 | 999.2 |
| 20260904114429 | 23 | 161 | 0.0 | 0.0 | 0.00 | 0.00 | 0.00 | 99 | 999.1 |
| 20260904114328 | 23 | 160 | 0.0 | 0.0 | 0.00 | 0.00 | 0.00 | 99 | 999.1 |
| 20260904114228 | 23 | 160 | 0.0 | 0.0 | 0.00 | 0.00 | 0.00 | 99 | 999.2 |
| 20260904114128 | 23 | 160 | 0.0 | 0.0 | 0.00 | 0.00 | 0.00 | 99 | 999.4 |
| 20260904113959 | 23 | 160 | 0.0 | 0.0 | 0.00 | 0.00 | 0.00 | 99 | 999.1 |
| 20260904113858 | 23 | 160 | 0.0 | 0.0 | 0.00 | 0.00 | 0.00 | 99 | 999.2 |
| 20260904113758 | 23 | 160 | 0.0 | 0.0 | 0.00 | 0.00 | 0.00 | 99 | 999.1 |
| 20260904113658 | 23 | 174 | 0.0 | 0.0 | 0.00 | 0.00 | 0.00 | 99 | 998.9 |
| 20260904113529 | 23 | 174 | 0.0 | 0.0 | 0.00 | 0.00 | 0.00 | 99 | 999.1 |
| 20260904113428 | 23 | 174 | 0.0 | 0.0 | 0.00 | 0.00 | 0.00 | 99 | 999.1 |
| 20260904113328 | 23 | 174 | 0.0 | 0.0 | 0.00 | 0.00 | 0.00 | 99 | 999.0 |
| 20260904113228 | 23 | 174 | 0.0 | 0.0 | 0.00 | 0.00 | 0.00 | 99 | 999.1 |
| 20260904113128 | 22 | 174 | 0.0 | 0.0 | 0.00 | 0.00 | 0.00 | 99 | 999.0 |
| 20260904113029 | 22 | 174 | 0.0 | 0.0 | 0.00 | 0.00 | 0.00 | 99 | 999.0 |
| 20260904112859 | 22 | 174 | 0.0 | 0.0 | 0.00 | 0.00 | 0.00 | 99 | 999.2 |
| 20260904112758 | 22 | 174 | 0.0 | 0.0 | 0.00 | 0.00 | 0.00 | 99 | 999.0 |
| 20260904112629 | 22 | 174 | 0.0 | 0.0 | 0.00 | 0.00 | 0.00 | 99 | 999.0 |
| 20260904112528 | 23 | 174 | 0.0 | 0.0 | 0.00 | 0.00 | 0.00 | 99 | 999.0 |
| 20260904112428 | 23 | 174 | 0.0 | 0.0 | 0.00 | 0.00 | 0.00 | 99 | 999.1 |
| 20260904112328 | 23 | 174 | 0.0 | 0.0 | 0.00 | 0.00 | 0.00 | 99 | 998.8 |
| 20260904112159 | 23 | 174 | 0.0 | 0.0 | 0.00 | 0.00 | 0.00 | 99 | 999.0 |
| 20260904112029 | 23 | 174 | 0.0 | 0.0 | 0.00 | 0.00 | 0.00 | 99 | 998.9 |
| 20260904111858 | 23 | 174 | 0.0 | 0.0 | 0.00 | 0.00 | 0.00 | 99 | 998.7 |
| 20260904111729 | 23 | 174 | 0.0 | 0.0 | 0.00 | 0.00 | 0.00 | 99 | 999.0 |
| 20260904111558 | 23 | 174 | 0.0 | 0.0 | 0.00 | 0.00 | 0.00 | 99 | 999.1 |
| 20260904111429 | 23 | 174 | 0.0 | 0.0 | 0.00 | 0.00 | 0.00 | 99 | 999.0 |
| 20260904111328 | 23 | 174 | 0.0 | 0.0 | 0.00 | 0.00 | 0.00 | 99 | 999.0 |
| 20260904111158 | 23 | 174 | 0.0 | 0.0 | 0.00 | 0.00 | 0.00 | 99 | 999.0 |
| 20260904111058 | 23 | 174 | 0.0 | 0.0 | 0.00 | 0.00 | 0.00 | 99 | 998.8 |
| 20260904110930 | 23 | 174 | 0.0 | 0.0 | 0.00 | 0.00 | 0.00 | 99 | 998.9 |
| 20260904110830 | 23 | 160 | 0.0 | 0.0 | 0.00 | 0.00 | 0.00 | 99 | 999.0 |
| 20260904110659 | 23 | 160 | 0.0 | 0.0 | 0.00 | 0.00 | 0.00 | 99 | 999.0 |
| 20260904110558 | 23 | 160 | 0.0 | 0.0 | 0.00 | 0.00 | 0.00 | 99 | 998.8 |
| 20260904110431 | 23 | 160 | 0.0 | 0.0 | 0.00 | 0.00 | 0.00 | 99 | 998.9 |
| 20260904110300 | 23 | 160 | 0.0 | 0.0 | 0.00 | 0.00 | 0.00 | 99 | 998.8 |
| 20260904110158 | 23 | 160 | 0.0 | 0.0 | 0.00 | 0.00 | 0.00 | 99 | 998.9 |
| 20260904110058 | 23 | 160 | 0.0 | 0.0 | 0.00 | 0.00 | 0.00 | 99 | 998.7 |
| 20260904105958 | 23 | 160 | 0.0 | 0.0 | 0.00 | 0.00 | 0.00 | 99 | 998.7 |
| 20260904105858 | 23 | 160 | 0.0 | 0.0 | 0.00 | 0.00 | 0.00 | 99 | 998.6 |
| 20260904105758 | 23 | 160 | 0.0 | 0.0 | 0.00 | 0.00 | 0.00 | 99 | 998.7 |
| 20260904105629 | 23 | 160 | 0.0 | 0.0 | 0.00 | 0.00 | 0.00 | 99 | 998.8 |
| 20260904105459 | 23 | 160 | 0.0 | 0.0 | 0.00 | 0.00 | 0.00 | 99 | 998.7 |
| 20260904105329 | 23 | 160 | 0.0 | 0.0 | 0.00 | 0.00 | 0.00 | 99 | 998.5 |
| 20260904105158 | 23 | 160 | 0.0 | 0.0 | 0.00 | 0.00 | 0.00 | 99 | 998.9 |
| 20260904105029 | 23 | 161 | 0.0 | 0.0 | 0.00 | 0.00 | 0.00 | 98 | 998.7 |
| 20260904104928 | 23 | 160 | 0.0 | 0.0 | 0.00 | 0.00 | 0.00 | 98 | 998.6 |
| 20260904104828 | 23 | 160 | 0.0 | 0.0 | 0.00 | 0.00 | 0.00 | 98 | 998.6 |
| 20260904104728 | 23 | 160 | 0.0 | 0.0 | 0.00 | 0.00 | 0.00 | 98 | 998.6 |
| 20260904104559 | 23 | 161 | 0.0 | 0.0 | 0.00 | 0.00 | 0.00 | 97 | 998.8 |
| 20260904104458 | 23 | 161 | 0.0 | 0.0 | 0.00 | 0.00 | 0.00 | 97 | 998.7 |
| 20260904104358 | 23 | 161 | 0.0 | 0.0 | 0.00 | 0.00 | 0.00 | 97 | 998.7 |
| 20260904104258 | 23 | 161 | 0.0 | 0.0 | 0.00 | 0.00 | 0.00 | 97 | 998.9 |
| 20260904104129 | 23 | 161 | 0.0 | 0.0 | 0.00 | 0.00 | 0.00 | 96 | 998.6 |
| 20260904104028 | 23 | 161 | 0.0 | 0.0 | 0.00 | 0.00 | 0.00 | 97 | 998.5 |
| 20260904103858 | 23 | 161 | 0.0 | 0.0 | 0.00 | 0.00 | 0.00 | 97 | 998.7 |
| 20260904103729 | 23 | 161 | 0.0 | 0.0 | 0.00 | 0.00 | 0.00 | 97 | 998.8 |
| 20260904103629 | 23 | 161 | 0.0 | 0.0 | 0.00 | 0.00 | 0.00 | 97 | 998.5 |
| 20260904103528 | 23 | 161 | 0.0 | 0.0 | 0.00 | 0.00 | 0.00 | 96 | 998.6 |
| 20260904103428 | 23 | 161 | 0.0 | 0.0 | 0.00 | 0.00 | 0.00 | 96 | 998.5 |
| 20260904103328 | 23 | 161 | 0.0 | 0.0 | 0.00 | 0.00 | 0.00 | 96 | 998.6 |
| 20260904103159 | 23 | 161 | 0.0 | 0.0 | 0.00 | 0.00 | 0.00 | 96 | 998.6 |
| 20260904103058 | 23 | 161 | 0.0 | 0.0 | 0.00 | 0.00 | 0.00 | 96 | 998.5 |
| 20260904102958 | 23 | 161 | 0.0 | 0.0 | 0.00 | 0.00 | 0.00 | 96 | 998.8 |
| 20260904102834 | 23 | 161 | 0.0 | 0.0 | 0.00 | 0.00 | 0.00 | 96 | 998.6 |
| 20260904102700 | 23 | 161 | 0.0 | 0.0 | 0.00 | 0.00 | 0.00 | 96 | 998.7 |
| 20260904102559 | 23 | 161 | 0.0 | 0.0 | 0.00 | 0.00 | 0.00 | 96 | 998.6 |
| 20260904102458 | 23 | 161 | 0.0 | 0.0 | 0.00 | 0.00 | 0.00 | 96 | 998.5 |
| 20260904102358 | 23 | 161 | 0.0 | 0.0 | 0.00 | 0.00 | 0.00 | 96 | 998.6 |
| 20260904102228 | 23 | 161 | 0.0 | 0.0 | 0.00 | 0.00 | 0.00 | 96 | 998.6 |
| 20260904102128 | 23 | 161 | 0.0 | 0.0 | 0.00 | 0.00 | 0.00 | 96 | 998.5 |
| 20260904102028 | 23 | 161 | 0.0 | 0.0 | 0.00 | 0.00 | 0.00 | 96 | 998.7 |
| 20260904101928 | 23 | 161 | 0.0 | 0.0 | 0.00 | 0.00 | 0.00 | 96 | 998.7 |
| 20260904101828 | 23 | 161 | 0.0 | 0.0 | 0.00 | 0.00 | 0.00 | 96 | 998.7 |
| 20260904101728 | 23 | 161 | 0.0 | 0.0 | 0.00 | 0.00 | 0.00 | 96 | 998.6 |
| 20260904101628 | 23 | 161 | 0.0 | 0.0 | 0.00 | 0.00 | 0.00 | 95 | 998.7 |
| 20260904101458 | 23 | 161 | 0.0 | 0.0 | 0.00 | 0.00 | 0.00 | 96 | 998.5 |
| 20260904101358 | 23 | 161 | 0.0 | 0.0 | 0.00 | 0.00 | 0.00 | 96 | 998.6 |
| 20260904101229 | 23 | 161 | 0.0 | 0.0 | 0.00 | 0.00 | 0.00 | 96 | 998.4 |
| 20260904101100 | 23 | 161 | 0.0 | 0.0 | 0.00 | 0.00 | 0.00 | 95 | 998.5 |
| 20260904100930 | 23 | 161 | 0.0 | 0.0 | 0.00 | 0.00 | 0.00 | 95 | 998.8 |
| 20260904100758 | 23 | 161 | 0.0 | 0.0 | 0.00 | 0.00 | 0.00 | 95 | 998.5 |
| 20260904100701 | 23 | 161 | 0.0 | 0.0 | 0.00 | 0.00 | 0.00 | 95 | 998.7 |
| 20260904100529 | 23 | 161 | 0.0 | 0.0 | 0.00 | 0.00 | 0.00 | 95 | 998.5 |
| 20260904100428 | 24 | 161 | 0.0 | 0.0 | 0.00 | 0.00 | 0.00 | 96 | 998.7 |
| 20260904100328 | 24 | 161 | 0.0 | 0.0 | 0.00 | 0.00 | 0.00 | 96 | 998.6 |
| 20260904100228 | 24 | 161 | 0.0 | 0.0 | 0.00 | 0.00 | 0.00 | 96 | 998.7 |
| 20260904100128 | 24 | 161 | 0.0 | 0.0 | 0.00 | 0.00 | 0.00 | 96 | 998.5 |
| 20260904095959 | 24 | 161 | 0.0 | 0.0 | 0.00 | 0.00 | 0.00 | 96 | 998.5 |
| 20260904095859 | 24 | 161 | 0.0 | 0.0 | 0.00 | 0.00 | 0.00 | 96 | 998.6 |
| 20260904095759 | 24 | 161 | 0.0 | 0.0 | 0.00 | 0.00 | 0.00 | 96 | 998.6 |
| 20260904095659 | 24 | 161 | 0.0 | 0.0 | 0.00 | 0.00 | 0.00 | 96 | 998.5 |
| 20260904095559 | 24 | 161 | 0.0 | 0.0 | 0.00 | 0.00 | 0.00 | 96 | 998.3 |
| 20260904095430 | 24 | 161 | 0.0 | 0.0 | 0.00 | 0.00 | 0.00 | 96 | 998.5 |
| 20260904095329 | 24 | 161 | 0.0 | 0.0 | 0.00 | 0.00 | 0.00 | 96 | 998.5 |
| 20260904095058 | 24 | 161 | 0.0 | 0.0 | 0.00 | 0.00 | 0.00 | 96 | 998.5 |
| 20260904094958 | 24 | 161 | 0.0 | 0.0 | 0.00 | 0.00 | 0.00 | 96 | 998.4 |
| 20260904094858 | 24 | 161 | 0.0 | 0.0 | 0.00 | 0.00 | 0.00 | 96 | 998.5 |
| 20260904094729 | 24 | 161 | 0.0 | 0.0 | 0.00 | 0.00 | 0.00 | 96 | 998.5 |
| 20260904094628 | 25 | 161 | 0.0 | 0.0 | 0.00 | 0.00 | 0.00 | 96 | 998.6 |
| 20260904094528 | 25 | 161 | 0.0 | 0.0 | 0.00 | 0.00 | 0.00 | 96 | 998.3 |
| 20260904094428 | 25 | 161 | 0.0 | 0.0 | 0.00 | 0.00 | 0.00 | 95 | 998.3 |
| 20260904094328 | 25 | 161 | 0.0 | 0.0 | 0.00 | 0.00 | 0.00 | 95 | 998.5 |
| 20260904094228 | 25 | 161 | 0.0 | 0.0 | 0.00 | 0.00 | 0.00 | 95 | 998.3 |
| 20260904094128 | 25 | 161 | 0.0 | 0.0 | 0.00 | 0.00 | 0.00 | 95 | 998.4 |
| 20260904093958 | 24 | 161 | 0.0 | 0.0 | 0.00 | 0.00 | 0.00 | 95 | 998.4 |
| 20260904093858 | 24 | 161 | 0.0 | 0.0 | 0.00 | 0.00 | 0.00 | 94 | 998.3 |
| 20260904093758 | 24 | 161 | 0.0 | 0.0 | 0.00 | 0.00 | 0.00 | 94 | 998.3 |
| 20260904093658 | 24 | 161 | 0.0 | 0.0 | 0.00 | 0.00 | 0.00 | 93 | 998.3 |
| 20260904093558 | 24 | 161 | 0.0 | 0.0 | 0.00 | 0.00 | 0.00 | 93 | 998.4 |
| 20260904093458 | 24 | 161 | 0.0 | 0.0 | 0.00 | 0.00 | 0.00 | 93 | 998.5 |
| 20260904093328 | 24 | 161 | 0.0 | 0.0 | 0.00 | 0.00 | 0.00 | 93 | 998.2 |
| 20260904093228 | 24 | 161 | 0.0 | 0.0 | 0.00 | 0.00 | 0.00 | 93 | 998.3 |
| 20260904093128 | 24 | 161 | 0.0 | 0.0 | 0.00 | 0.00 | 0.00 | 93 | 998.1 |
| 20260904093028 | 24 | 161 | 0.0 | 0.0 | 0.00 | 0.00 | 0.00 | 94 | 998.3 |
| 20260904092858 | 25 | 161 | 0.0 | 0.0 | 0.00 | 0.00 | 0.00 | 94 | 998.3 |
| 20260904092758 | 25 | 161 | 0.0 | 0.0 | 0.00 | 0.00 | 0.00 | 94 | 998.2 |
| 20260904092658 | 25 | 161 | 0.0 | 0.0 | 0.00 | 0.00 | 0.00 | 94 | 998.2 |
| 20260904092600 | 25 | 161 | 0.0 | 0.0 | 0.00 | 0.00 | 0.00 | 94 | 998.2 |
| 20260904092429 | 25 | 161 | 0.0 | 0.0 | 0.00 | 0.00 | 0.00 | 94 | 998.4 |
| 20260904092258 | 25 | 161 | 0.0 | 0.0 | 0.00 | 0.00 | 0.00 | 94 | 998.2 |
| 20260904092158 | 25 | 161 | 0.0 | 0.0 | 0.00 | 0.00 | 0.00 | 94 | 998.3 |
| 20260904092058 | 25 | 161 | 0.0 | 0.0 | 0.00 | 0.00 | 0.00 | 94 | 998.5 |
| 20260904091928 | 25 | 161 | 0.0 | 0.0 | 0.00 | 0.00 | 0.00 | 93 | 998.4 |
| 20260904091758 | 25 | 161 | 0.0 | 0.0 | 0.00 | 0.00 | 0.00 | 93 | 998.1 |
| 20260904091658 | 25 | 161 | 0.0 | 0.0 | 0.00 | 0.00 | 0.00 | 93 | 998.2 |
| 20260904091529 | 25 | 161 | 0.0 | 0.0 | 0.00 | 0.00 | 0.00 | 93 | 998.3 |
| 20260904091428 | 25 | 161 | 0.0 | 0.0 | 0.00 | 0.00 | 0.00 | 93 | 998.4 |
| 20260904091328 | 25 | 161 | 0.0 | 0.0 | 0.00 | 0.00 | 0.00 | 93 | 998.2 |
| 20260904091159 | 25 | 161 | 0.0 | 0.0 | 0.00 | 0.00 | 0.00 | 93 | 998.1 |
| 20260904091058 | 25 | 161 | 0.0 | 0.0 | 0.00 | 0.00 | 0.00 | 92 | 998.2 |
| 20260904090958 | 25 | 161 | 0.0 | 0.0 | 0.00 | 0.00 | 0.00 | 92 | 998.0 |
| 20260904090858 | 25 | 161 | 0.0 | 0.0 | 0.00 | 0.00 | 0.00 | 92 | 997.9 |
| 20260904090758 | 25 | 161 | 0.0 | 0.0 | 0.00 | 0.00 | 0.00 | 91 | 998.1 |
| 20260904090658 | 25 | 161 | 0.0 | 0.0 | 0.00 | 0.00 | 0.00 | 90 | 998.2 |
| 20260904090558 | 25 | 161 | 0.0 | 0.0 | 0.00 | 0.00 | 0.00 | 90 | 997.9 |
| 20260904090458 | 25 | 161 | 1.6 | 1.6 | 0.00 | 0.00 | 0.00 | 90 | 998.0 |
| 20260904090358 | 25 | 161 | 1.6 | 3.2 | 0.00 | 0.00 | 0.00 | 89 | 997.9 |
| 20260904090228 | 25 | 161 | 1.6 | 3.2 | 0.00 | 0.00 | 0.00 | 90 | 998.0 |
| 20260904090128 | 25 | 161 | 1.6 | 3.2 | 0.00 | 0.00 | 0.00 | 90 | 998.1 |
| 20260904085959 | 25 | 161 | 1.6 | 1.6 | 0.00 | 0.00 | 0.00 | 90 | 998.2 |
| 20260904085829 | 25 | 161 | 0.0 | 0.0 | 0.00 | 0.00 | 0.00 | 91 | 998.0 |
| 20260904085728 | 25 | 161 | 0.0 | 0.0 | 0.00 | 0.00 | 0.00 | 91 | 998.3 |
| 20260904085628 | 25 | 161 | 0.0 | 0.0 | 0.00 | 0.00 | 0.00 | 91 | 998.2 |
| 20260904085528 | 25 | 161 | 0.0 | 0.0 | 0.00 | 0.00 | 0.00 | 91 | 998.0 |
| 20260904085359 | 25 | 161 | 0.0 | 0.0 | 0.00 | 0.00 | 0.00 | 91 | 998.0 |
| 20260904085258 | 25 | 161 | 0.0 | 0.0 | 0.00 | 0.00 | 0.00 | 91 | 998.2 |
| 20260904085158 | 25 | 161 | 0.0 | 0.0 | 0.00 | 0.00 | 0.00 | 91 | 997.9 |
| 20260904085058 | 25 | 161 | 0.0 | 0.0 | 0.00 | 0.00 | 0.00 | 91 | 997.8 |
| 20260904084930 | 25 | 161 | 0.0 | 0.0 | 0.00 | 0.00 | 0.00 | 91 | 998.1 |
| 20260904084828 | 25 | 161 | 0.0 | 0.0 | 0.00 | 0.00 | 0.00 | 91 | 998.1 |
| 20260904084658 | 25 | 161 | 0.0 | 0.0 | 0.00 | 0.00 | 0.00 | 90 | 998.1 |
| 20260904084529 | 25 | 161 | 0.0 | 0.0 | 0.00 | 0.00 | 0.00 | 90 | 998.2 |
| 20260904084359 | 25 | 161 | 0.0 | 0.0 | 0.00 | 0.00 | 0.00 | 90 | 997.9 |
| 20260904083958 | 25 | 161 | 0.0 | 0.0 | 0.00 | 0.00 | 0.00 | 90 | 998.1 |
| 20260904083858 | 25 | 161 | 0.0 | 0.0 | 0.00 | 0.00 | 0.00 | 90 | 997.9 |
| 20260904083728 | 25 | 161 | 0.0 | 0.0 | 0.00 | 0.00 | 0.00 | 90 | 998.2 |
| 20260904083559 | 25 | 161 | 0.0 | 0.0 | 0.00 | 0.00 | 0.00 | 90 | 998.0 |
| 20260904083458 | 25 | 161 | 0.0 | 0.0 | 0.00 | 0.00 | 0.00 | 90 | 997.9 |
| 20260904083328 | 25 | 161 | 0.0 | 1.6 | 0.00 | 0.00 | 0.00 | 90 | 997.9 |
| 20260904083159 | 25 | 161 | 0.0 | 0.0 | 0.00 | 0.00 | 0.00 | 90 | 997.8 |
| 20260904083030 | 25 | 161 | 0.0 | 0.0 | 0.00 | 0.00 | 0.00 | 90 | 998.0 |
| 20260904082859 | 25 | 161 | 0.0 | 0.0 | 0.00 | 0.00 | 0.00 | 90 | 997.6 |
| 20260904082729 | 25 | 161 | 0.0 | 0.0 | 0.00 | 0.00 | 0.00 | 90 | 998.2 |
| 20260904082608 | 25 | 161 | 0.0 | 1.6 | 0.00 | 0.00 | 0.00 | 90 | 997.9 |
| 20260904082458 | 25 | 161 | 0.0 | 0.0 | 0.00 | 0.00 | 0.00 | 90 | 998.1 |
| 20260904082329 | 25 | 161 | 0.0 | 0.0 | 0.00 | 0.00 | 0.00 | 90 | 998.0 |
| 20260904082228 | 25 | 161 | 0.0 | 0.0 | 0.00 | 0.00 | 0.00 | 90 | 998.0 |
| 20260904082128 | 25 | 161 | 0.0 | 0.0 | 0.00 | 0.00 | 0.00 | 90 | 998.1 |
| 20260904081959 | 25 | 161 | 0.0 | 0.0 | 0.00 | 0.00 | 0.00 | 90 | 997.8 |
| 20260904081829 | 25 | 161 | 0.0 | 0.0 | 0.00 | 0.00 | 0.00 | 90 | 998.2 |
| 20260904081728 | 25 | 161 | 0.0 | 0.0 | 0.00 | 0.00 | 0.00 | 90 | 998.0 |
| 20260904081628 | 25 | 161 | 0.0 | 0.0 | 0.00 | 0.00 | 0.00 | 90 | 997.9 |
| 20260904081528 | 25 | 161 | 0.0 | 0.0 | 0.00 | 0.00 | 0.00 | 90 | 998.1 |
| 20260904081428 | 25 | 161 | 0.0 | 0.0 | 0.00 | 0.00 | 0.00 | 90 | 998.2 |
| 20260904081328 | 25 | 161 | 0.0 | 0.0 | 0.00 | 0.00 | 0.00 | 90 | 998.0 |
| 20260904081159 | 25 | 161 | 0.0 | 0.0 | 0.00 | 0.00 | 0.00 | 89 | 997.9 |
| 20260904080930 | 25 | 161 | 0.0 | 1.6 | 0.00 | 0.00 | 0.00 | 89 | 998.0 |
| 20260904080759 | 25 | 161 | 0.0 | 0.0 | 0.00 | 0.00 | 0.00 | 90 | 998.2 |
| 20260904080628 | 25 | 161 | 0.0 | 0.0 | 0.00 | 0.00 | 0.00 | 90 | 998.1 |
| 20260904080528 | 25 | 161 | 0.0 | 1.6 | 0.00 | 0.00 | 0.00 | 90 | 998.1 |
| 20260904080358 | 25 | 161 | 0.0 | 0.0 | 0.00 | 0.00 | 0.00 | 90 | 997.6 |
| 20260904080258 | 25 | 161 | 0.0 | 0.0 | 0.00 | 0.00 | 0.00 | 90 | 998.2 |
| 20260904080158 | 25 | 161 | 0.0 | 0.0 | 0.00 | 0.00 | 0.00 | 91 | 998.0 |
| 20260904080030 | 25 | 161 | 0.0 | 0.0 | 0.00 | 0.00 | 0.00 | 90 | 997.9 |
| 20260904075928 | 25 | 161 | 0.0 | 0.0 | 0.00 | 0.00 | 0.00 | 90 | 997.9 |
| 20260904075759 | 25 | 161 | 0.0 | 0.0 | 0.00 | 0.00 | 0.00 | 90 | 998.1 |
| 20260904075658 | 25 | 161 | 0.0 | 0.0 | 0.00 | 0.00 | 0.00 | 90 | 997.9 |
| 20260904075528 | 25 | 161 | 0.0 | 0.0 | 0.00 | 0.00 | 0.00 | 90 | 998.0 |
| 20260904075428 | 25 | 161 | 0.0 | 0.0 | 0.00 | 0.00 | 0.00 | 90 | 998.3 |
| 20260904075258 | 25 | 161 | 0.0 | 0.0 | 0.00 | 0.00 | 0.00 | 90 | 997.9 |
| 20260904075158 | 25 | 161 | 0.0 | 0.0 | 0.00 | 0.00 | 0.00 | 90 | 998.1 |
| 20260904075058 | 25 | 161 | 0.0 | 0.0 | 0.00 | 0.00 | 0.00 | 90 | 998.1 |
| 20260904074958 | 25 | 161 | 1.6 | 3.2 | 0.00 | 0.00 | 0.00 | 90 | 998.0 |
| 20260904074828 | 25 | 161 | 1.6 | 3.2 | 0.00 | 0.00 | 0.00 | 90 | 998.0 |
| 20260904074659 | 25 | 161 | 0.0 | 0.0 | 0.00 | 0.00 | 0.00 | 90 | 998.3 |
| 20260904074558 | 25 | 161 | 0.0 | 0.0 | 0.00 | 0.00 | 0.00 | 90 | 998.0 |
| 20260904074458 | 25 | 161 | 0.0 | 0.0 | 0.00 | 0.00 | 0.00 | 90 | 998.0 |
| 20260904074358 | 25 | 161 | 0.0 | 0.0 | 0.00 | 0.00 | 0.00 | 90 | 998.0 |
| 20260904074230 | 25 | 161 | 0.0 | 0.0 | 0.00 | 0.00 | 0.00 | 90 | 998.2 |
| 20260904074128 | 25 | 161 | 0.0 | 0.0 | 0.00 | 0.00 | 0.00 | 90 | 998.2 |
| 20260904074028 | 25 | 161 | 0.0 | 0.0 | 0.00 | 0.00 | 0.00 | 90 | 997.9 |
| 20260904073928 | 25 | 161 | 0.0 | 0.0 | 0.00 | 0.00 | 0.00 | 90 | 998.0 |
| 20260904073759 | 25 | 161 | 0.0 | 0.0 | 0.00 | 0.00 | 0.00 | 91 | 997.9 |
| 20260904073658 | 25 | 161 | 0.0 | 1.6 | 0.00 | 0.00 | 0.00 | 90 | 997.9 |
| 20260904073558 | 25 | 161 | 1.6 | 1.6 | 0.00 | 0.00 | 0.00 | 91 | 998.1 |
| 20260904073458 | 25 | 161 | 0.0 | 0.0 | 0.00 | 0.00 | 0.00 | 92 | 998.0 |
| 20260904073358 | 25 | 161 | 0.0 | 0.0 | 0.00 | 0.00 | 0.00 | 92 | 998.1 |
| 20260904073258 | 25 | 161 | 0.0 | 0.0 | 0.00 | 0.00 | 0.00 | 92 | 998.2 |
| 20260904073158 | 25 | 161 | 0.0 | 0.0 | 0.00 | 0.00 | 0.00 | 92 | 998.3 |
| 20260904073029 | 25 | 161 | 0.0 | 0.0 | 0.00 | 0.00 | 0.00 | 92 | 998.1 |
| 20260904072928 | 25 | 161 | 0.0 | 0.0 | 0.00 | 0.00 | 0.00 | 92 | 998.0 |
| 20260904072801 | 25 | 161 | 0.0 | 0.0 | 0.00 | 0.00 | 0.00 | 92 | 998.1 |
| 20260904072628 | 25 | 161 | 0.0 | 0.0 | 0.00 | 0.00 | 0.00 | 92 | 998.0 |
| 20260904072459 | 25 | 161 | 0.0 | 0.0 | 0.00 | 0.00 | 0.00 | 93 | 998.1 |
| 20260904072358 | 25 | 161 | 0.0 | 0.0 | 0.00 | 0.00 | 0.00 | 93 | 998.1 |
| 20260904072258 | 25 | 161 | 0.0 | 0.0 | 0.00 | 0.00 | 0.00 | 93 | 998.2 |
| 20260904072158 | 25 | 161 | 0.0 | 0.0 | 0.00 | 0.00 | 0.00 | 94 | 998.2 |
| 20260904072058 | 25 | 161 | 0.0 | 0.0 | 0.00 | 0.00 | 0.00 | 94 | 998.1 |
| 20260904071929 | 25 | 161 | 0.0 | 0.0 | 0.00 | 0.00 | 0.00 | 93 | 998.2 |
| 20260904071828 | 25 | 161 | 0.0 | 0.0 | 0.00 | 0.00 | 0.00 | 93 | 997.9 |
| 20260904071658 | 25 | 161 | 0.0 | 0.0 | 0.00 | 0.00 | 0.00 | 93 | 998.1 |
| 20260904071558 | 25 | 161 | 0.0 | 0.0 | 0.00 | 0.00 | 0.00 | 93 | 998.2 |
| 20260904071429 | 24 | 161 | 0.0 | 0.0 | 0.00 | 0.00 | 0.00 | 93 | 998.1 |
| 20260904071328 | 24 | 161 | 0.0 | 0.0 | 0.00 | 0.00 | 0.00 | 93 | 998.2 |
| 20260904071228 | 24 | 161 | 0.0 | 0.0 | 0.00 | 0.00 | 0.00 | 93 | 998.2 |
| 20260904071059 | 24 | 161 | 0.0 | 0.0 | 0.00 | 0.00 | 0.00 | 93 | 998.1 |
| 20260904070958 | 24 | 161 | 0.0 | 0.0 | 0.00 | 0.00 | 0.00 | 93 | 998.3 |
| 20260904070828 | 24 | 161 | 0.0 | 0.0 | 0.00 | 0.00 | 0.00 | 93 | 998.0 |
| 20260904070659 | 24 | 161 | 0.0 | 0.0 | 0.00 | 0.00 | 0.00 | 93 | 998.0 |
| 20260904070558 | 24 | 161 | 0.0 | 0.0 | 0.00 | 0.00 | 0.00 | 93 | 998.1 |
| 20260904070458 | 24 | 161 | 0.0 | 0.0 | 0.00 | 0.00 | 0.00 | 93 | 998.1 |
| 20260904070329 | 24 | 161 | 0.0 | 0.0 | 0.00 | 0.00 | 0.00 | 93 | 998.1 |
| 20260904070159 | 24 | 161 | 0.0 | 0.0 | 0.00 | 0.00 | 0.00 | 93 | 998.0 |
| 20260904070058 | 24 | 161 | 0.0 | 0.0 | 0.00 | 0.00 | 0.00 | 93 | 998.0 |
| 20260904065958 | 24 | 161 | 0.0 | 0.0 | 0.00 | 0.00 | 0.00 | 93 | 998.3 |
| 20260904065829 | 24 | 161 | 0.0 | 0.0 | 0.00 | 0.00 | 0.00 | 94 | 998.1 |
| 20260904065729 | 24 | 161 | 0.0 | 0.0 | 0.00 | 0.00 | 0.00 | 94 | 998.3 |
| 20260904065558 | 24 | 161 | 0.0 | 0.0 | 0.00 | 0.00 | 0.00 | 94 | 998.1 |
| 20260904065428 | 24 | 161 | 0.0 | 0.0 | 0.00 | 0.00 | 0.00 | 95 | 998.2 |
| 20260904065259 | 24 | 161 | 0.0 | 0.0 | 0.00 | 0.00 | 0.00 | 94 | 998.2 |
| 20260904065129 | 24 | 161 | 0.0 | 0.0 | 0.00 | 0.00 | 0.00 | 95 | 998.3 |
| 20260904065035 | 24 | 161 | 0.0 | 0.0 | 0.00 | 0.00 | 0.00 | 95 | 998.1 |
| 20260904064928 | 24 | 161 | 0.0 | 0.0 | 0.00 | 0.00 | 0.00 | 95 | 998.4 |
| 20260904064758 | 25 | 161 | 0.0 | 0.0 | 0.00 | 0.00 | 0.00 | 95 | 998.3 |
| 20260904064628 | 25 | 161 | 0.0 | 0.0 | 0.00 | 0.00 | 0.00 | 95 | 998.1 |
| 20260904064459 | 25 | 161 | 0.0 | 0.0 | 0.00 | 0.00 | 0.00 | 95 | 998.2 |
| 20260904064328 | 25 | 161 | 0.0 | 0.0 | 0.00 | 0.00 | 0.00 | 95 | 998.2 |
| 20260904064158 | 25 | 161 | 0.0 | 0.0 | 0.00 | 0.00 | 0.00 | 96 | 998.0 |
| 20260904064058 | 25 | 161 | 0.0 | 0.0 | 0.00 | 0.00 | 0.00 | 96 | 998.2 |
| 20260904063958 | 25 | 161 | 0.0 | 0.0 | 0.00 | 0.00 | 0.00 | 95 | 998.3 |
| 20260904063858 | 25 | 161 | 0.0 | 0.0 | 0.00 | 0.00 | 0.00 | 95 | 998.4 |
| 20260904063729 | 25 | 161 | 0.0 | 0.0 | 0.00 | 0.00 | 0.00 | 95 | 998.1 |
| 20260904063628 | 25 | 161 | 0.0 | 0.0 | 0.00 | 0.00 | 0.00 | 95 | 998.1 |
| 20260904063528 | 25 | 161 | 0.0 | 0.0 | 0.00 | 0.00 | 0.00 | 95 | 998.3 |
| 20260904063428 | 25 | 161 | 0.0 | 0.0 | 0.00 | 0.00 | 0.00 | 95 | 998.1 |
| 20260904063258 | 25 | 161 | 0.0 | 0.0 | 0.00 | 0.00 | 0.00 | 96 | 998.0 |
| 20260904063158 | 25 | 161 | 0.0 | 0.0 | 0.00 | 0.00 | 0.00 | 96 | 998.2 |
| 20260904063058 | 25 | 161 | 0.0 | 0.0 | 0.00 | 0.00 | 0.00 | 96 | 998.4 |
| 20260904062958 | 25 | 161 | 0.0 | 0.0 | 0.00 | 0.00 | 0.00 | 96 | 998.1 |
| 20260904062858 | 25 | 161 | 0.0 | 0.0 | 0.00 | 0.00 | 0.00 | 96 | 998.2 |
| 20260904062728 | 25 | 161 | 0.0 | 0.0 | 0.00 | 0.00 | 0.00 | 96 | 998.2 |
| 20260904062559 | 25 | 161 | 0.0 | 0.0 | 0.00 | 0.00 | 0.00 | 96 | 998.2 |
| 20260904062458 | 25 | 161 | 0.0 | 0.0 | 0.00 | 0.00 | 0.00 | 96 | 998.1 |
| 20260904062358 | 25 | 161 | 0.0 | 0.0 | 0.00 | 0.00 | 0.00 | 96 | 998.1 |
| 20260904062258 | 25 | 161 | 0.0 | 0.0 | 0.00 | 0.00 | 0.00 | 96 | 998.3 |
| 20260904062158 | 25 | 161 | 0.0 | 0.0 | 0.00 | 0.00 | 0.00 | 96 | 998.3 |
| 20260904062058 | 25 | 161 | 0.0 | 0.0 | 0.00 | 0.00 | 0.00 | 96 | 998.4 |
| 20260904061958 | 25 | 161 | 0.0 | 0.0 | 0.00 | 0.00 | 0.00 | 96 | 998.3 |
| 20260904061829 | 25 | 161 | 0.0 | 0.0 | 0.00 | 0.00 | 0.00 | 95 | 998.2 |
| 20260904061659 | 25 | 161 | 0.0 | 0.0 | 0.00 | 0.00 | 0.00 | 95 | 998.2 |
| 20260904061528 | 25 | 161 | 0.0 | 0.0 | 0.00 | 0.00 | 0.00 | 95 | 998.3 |
| 20260904061359 | 25 | 161 | 0.0 | 0.0 | 0.00 | 0.00 | 0.00 | 95 | 998.3 |
| 20260904061229 | 25 | 161 | 0.0 | 0.0 | 0.00 | 0.00 | 0.00 | 95 | 998.2 |
| 20260904061128 | 25 | 161 | 0.0 | 0.0 | 0.00 | 0.00 | 0.00 | 95 | 998.3 |
| 20260904061028 | 25 | 161 | 0.0 | 0.0 | 0.00 | 0.00 | 0.00 | 94 | 998.3 |
| 20260904060928 | 25 | 161 | 0.0 | 0.0 | 0.00 | 0.00 | 0.00 | 94 | 998.4 |
| 20260904060758 | 25 | 161 | 0.0 | 0.0 | 0.00 | 0.00 | 0.00 | 94 | 998.5 |
| 20260904060658 | 25 | 161 | 0.0 | 0.0 | 0.00 | 0.00 | 0.00 | 93 | 998.3 |
| 20260904060558 | 25 | 161 | 0.0 | 0.0 | 0.00 | 0.00 | 0.00 | 93 | 998.3 |
| 20260904060458 | 25 | 161 | 0.0 | 0.0 | 0.00 | 0.00 | 0.00 | 93 | 998.5 |
| 20260904060329 | 25 | 161 | 0.0 | 0.0 | 0.00 | 0.00 | 0.00 | 93 | 998.3 |
| 20260904060228 | 25 | 161 | 0.0 | 0.0 | 0.00 | 0.00 | 0.00 | 93 | 998.2 |
| 20260904060129 | 25 | 161 | 0.0 | 0.0 | 0.00 | 0.00 | 0.00 | 93 | 998.3 |
| 20260904060028 | 25 | 161 | 0.0 | 0.0 | 0.00 | 0.00 | 0.00 | 93 | 998.1 |
| 20260904055858 | 25 | 161 | 0.0 | 0.0 | 0.00 | 0.00 | 0.00 | 93 | 998.4 |
| 20260904055758 | 25 | 161 | 0.0 | 0.0 | 0.00 | 0.00 | 0.00 | 93 | 998.3 |
| 20260904055658 | 25 | 161 | 0.0 | 0.0 | 0.00 | 0.00 | 0.00 | 93 | 998.2 |
| 20260904055558 | 25 | 161 | 0.0 | 0.0 | 0.00 | 0.00 | 0.00 | 93 | 998.2 |
| 20260904055429 | 25 | 161 | 0.0 | 0.0 | 0.00 | 0.00 | 0.00 | 93 | 998.2 |
| 20260904055328 | 25 | 161 | 0.0 | 0.0 | 0.00 | 0.00 | 0.00 | 93 | 998.5 |
| 20260904055228 | 25 | 161 | 0.0 | 0.0 | 0.00 | 0.00 | 0.00 | 93 | 998.4 |
| 20260904055128 | 25 | 161 | 0.0 | 0.0 | 0.00 | 0.00 | 0.00 | 93 | 998.2 |
| 20260904054959 | 26 | 161 | 0.0 | 0.0 | 0.00 | 0.00 | 0.00 | 93 | 998.1 |
| 20260904054858 | 26 | 161 | 0.0 | 0.0 | 0.00 | 0.00 | 0.00 | 92 | 998.1 |
| 20260904054758 | 26 | 161 | 0.0 | 0.0 | 0.00 | 0.00 | 0.00 | 92 | 998.3 |
| 20260904054658 | 25 | 161 | 0.0 | 0.0 | 0.00 | 0.00 | 0.00 | 92 | 998.3 |
| 20260904054558 | 25 | 161 | 0.0 | 0.0 | 0.00 | 0.00 | 0.00 | 90 | 998.4 |
| 20260904054458 | 25 | 161 | 0.0 | 0.0 | 0.00 | 0.00 | 0.00 | 91 | 998.1 |
| 20260904054358 | 25 | 161 | 0.0 | 0.0 | 0.00 | 0.00 | 0.00 | 90 | 998.3 |
| 20260904054258 | 25 | 161 | 0.0 | 0.0 | 0.00 | 0.00 | 0.00 | 90 | 998.3 |
| 20260904054128 | 25 | 161 | 0.0 | 0.0 | 0.00 | 0.00 | 0.00 | 89 | 998.5 |
| 20260904053958 | 25 | 161 | 0.0 | 0.0 | 0.00 | 0.00 | 0.00 | 89 | 998.3 |
| 20260904053858 | 25 | 161 | 0.0 | 0.0 | 0.00 | 0.00 | 0.00 | 89 | 998.3 |
| 20260904053729 | 25 | 161 | 0.0 | 0.0 | 0.00 | 0.00 | 0.00 | 89 | 998.5 |
| 20260904053629 | 25 | 161 | 0.0 | 0.0 | 0.00 | 0.00 | 0.00 | 89 | 998.4 |
| 20260904053528 | 25 | 161 | 0.0 | 0.0 | 0.00 | 0.00 | 0.00 | 89 | 998.3 |
| 20260904053428 | 25 | 161 | 0.0 | 0.0 | 0.00 | 0.00 | 0.00 | 89 | 998.4 |
| 20260904053328 | 25 | 161 | 0.0 | 0.0 | 0.00 | 0.00 | 0.00 | 89 | 998.2 |
| 20260904053200 | 25 | 161 | 0.0 | 0.0 | 0.00 | 0.00 | 0.00 | 89 | 998.3 |
| 20260904053058 | 25 | 161 | 0.0 | 0.0 | 0.00 | 0.00 | 0.00 | 89 | 998.3 |
| 20260904052958 | 25 | 161 | 0.0 | 0.0 | 0.00 | 0.00 | 0.00 | 89 | 998.4 |
| 20260904052858 | 25 | 161 | 0.0 | 0.0 | 0.00 | 0.00 | 0.00 | 89 | 998.4 |
| 20260904052758 | 25 | 161 | 0.0 | 0.0 | 0.00 | 0.00 | 0.00 | 89 | 998.5 |
| 20260904052658 | 25 | 161 | 0.0 | 0.0 | 0.00 | 0.00 | 0.00 | 89 | 998.4 |
| 20260904052529 | 25 | 161 | 0.0 | 0.0 | 0.00 | 0.00 | 0.00 | 89 | 998.5 |
| 20260904052428 | 25 | 161 | 0.0 | 0.0 | 0.00 | 0.00 | 0.00 | 89 | 998.3 |
| 20260904052259 | 25 | 161 | 0.0 | 0.0 | 0.00 | 0.00 | 0.00 | 89 | 998.4 |
| 20260904052129 | 25 | 161 | 0.0 | 0.0 | 0.00 | 0.00 | 0.00 | 89 | 998.5 |
| 20260904051959 | 25 | 161 | 0.0 | 0.0 | 0.00 | 0.00 | 0.00 | 89 | 998.2 |
| 20260904051829 | 25 | 161 | 0.0 | 0.0 | 0.00 | 0.00 | 0.00 | 89 | 998.6 |
| 20260904051728 | 25 | 161 | 0.0 | 0.0 | 0.00 | 0.00 | 0.00 | 89 | 998.4 |
| 20260904051558 | 25 | 161 | 0.0 | 0.0 | 0.00 | 0.00 | 0.00 | 89 | 998.5 |
| 20260904051429 | 25 | 161 | 0.0 | 0.0 | 0.00 | 0.00 | 0.00 | 89 | 998.6 |
| 20260904051328 | 25 | 161 | 0.0 | 0.0 | 0.00 | 0.00 | 0.00 | 89 | 998.6 |
| 20260904051228 | 25 | 161 | 0.0 | 0.0 | 0.00 | 0.00 | 0.00 | 89 | 998.5 |
| 20260904051059 | 26 | 161 | 0.0 | 0.0 | 0.00 | 0.00 | 0.00 | 89 | 998.5 |
| 20260904050929 | 26 | 161 | 0.0 | 0.0 | 0.00 | 0.00 | 0.00 | 89 | 998.5 |
| 20260904050828 | 26 | 161 | 0.0 | 0.0 | 0.00 | 0.00 | 0.00 | 89 | 998.6 |
| 20260904050728 | 26 | 161 | 0.0 | 0.0 | 0.00 | 0.00 | 0.00 | 89 | 998.4 |
| 20260904050628 | 26 | 161 | 0.0 | 0.0 | 0.00 | 0.00 | 0.00 | 89 | 998.4 |
| 20260904050528 | 26 | 161 | 0.0 | 0.0 | 0.00 | 0.00 | 0.00 | 89 | 998.3 |
| 20260904050358 | 26 | 161 | 0.0 | 0.0 | 0.00 | 0.00 | 0.00 | 89 | 998.7 |
| 20260904050258 | 26 | 161 | 0.0 | 0.0 | 0.00 | 0.00 | 0.00 | 89 | 998.5 |
| 20260904050158 | 26 | 161 | 0.0 | 0.0 | 0.00 | 0.00 | 0.00 | 89 | 998.6 |
| 20260904050029 | 26 | 161 | 0.0 | 0.0 | 0.00 | 0.00 | 0.00 | 90 | 998.5 |
| 20260904045958 | 26 | 161 | 0.0 | 0.0 | 0.00 | 0.00 | 0.00 | 90 | 998.7 |
| 20260904045829 | 26 | 161 | 0.0 | 0.0 | 0.00 | 0.00 | 0.00 | 90 | 998.5 |
| 20260904045659 | 26 | 161 | 0.0 | 0.0 | 0.00 | 0.00 | 0.00 | 90 | 998.8 |
| 20260904045558 | 26 | 161 | 0.0 | 0.0 | 0.00 | 0.00 | 0.00 | 90 | 998.6 |
| 20260904045458 | 26 | 161 | 0.0 | 0.0 | 0.00 | 0.00 | 0.00 | 90 | 998.6 |
| 20260904045358 | 26 | 161 | 0.0 | 0.0 | 0.00 | 0.00 | 0.00 | 90 | 998.6 |
| 20260904045258 | 26 | 161 | 0.0 | 0.0 | 0.00 | 0.00 | 0.00 | 90 | 998.5 |
| 20260904045129 | 26 | 161 | 0.0 | 0.0 | 0.00 | 0.00 | 0.00 | 90 | 998.3 |
| 20260904045028 | 26 | 161 | 0.0 | 0.0 | 0.00 | 0.00 | 0.00 | 90 | 998.6 |
| 20260904044928 | 26 | 161 | 0.0 | 0.0 | 0.00 | 0.00 | 0.00 | 90 | 998.7 |
| 20260904044800 | 26 | 161 | 0.0 | 0.0 | 0.00 | 0.00 | 0.00 | 90 | 998.5 |
| 20260904044658 | 26 | 161 | 0.0 | 0.0 | 0.00 | 0.00 | 0.00 | 90 | 998.6 |
| 20260904044558 | 26 | 161 | 0.0 | 0.0 | 0.00 | 0.00 | 0.00 | 89 | 998.4 |
| 20260904044458 | 26 | 161 | 0.0 | 0.0 | 0.00 | 0.00 | 0.00 | 89 | 998.5 |
| 20260904044358 | 26 | 161 | 0.0 | 0.0 | 0.00 | 0.00 | 0.00 | 88 | 998.7 |
| 20260904044258 | 26 | 161 | 0.0 | 0.0 | 0.00 | 0.00 | 0.00 | 87 | 998.7 |
| 20260904044128 | 26 | 161 | 0.0 | 0.0 | 0.00 | 0.00 | 0.00 | 86 | 998.6 |
| 20260904044028 | 26 | 161 | 0.0 | 0.0 | 0.00 | 0.00 | 0.00 | 86 | 998.4 |
| 20260904043929 | 26 | 161 | 0.0 | 0.0 | 0.00 | 0.00 | 0.00 | 85 | 998.5 |
| 20260904043758 | 26 | 161 | 0.0 | 0.0 | 0.00 | 0.00 | 0.00 | 85 | 998.5 |
| 20260904043659 | 26 | 161 | 0.0 | 0.0 | 0.00 | 0.00 | 0.00 | 86 | 998.6 |
| 20260904043558 | 26 | 161 | 0.0 | 0.0 | 0.00 | 0.00 | 0.00 | 85 | 998.5 |
| 20260904043430 | 26 | 161 | 0.0 | 0.0 | 0.00 | 0.00 | 0.00 | 86 | 998.5 |
| 20260904043328 | 27 | 161 | 0.0 | 0.0 | 0.00 | 0.00 | 0.00 | 85 | 998.7 |
| 20260904043228 | 27 | 161 | 0.0 | 0.0 | 0.00 | 0.00 | 0.00 | 85 | 998.5 |
| 20260904043128 | 27 | 161 | 0.0 | 0.0 | 0.00 | 0.00 | 0.00 | 85 | 998.5 |
| 20260904043028 | 27 | 161 | 0.0 | 0.0 | 0.00 | 0.00 | 0.00 | 85 | 998.6 |
| 20260904042928 | 27 | 161 | 0.0 | 0.0 | 0.00 | 0.00 | 0.00 | 85 | 998.5 |
| 20260904042759 | 27 | 161 | 0.0 | 0.0 | 0.00 | 0.00 | 0.00 | 86 | 998.3 |
| 20260904042658 | 27 | 161 | 0.0 | 0.0 | 0.00 | 0.00 | 0.00 | 86 | 998.8 |
| 20260904042529 | 27 | 161 | 0.0 | 0.0 | 0.00 | 0.00 | 0.00 | 84 | 998.5 |
| 20260904042428 | 27 | 161 | 0.0 | 0.0 | 0.00 | 0.00 | 0.00 | 87 | 998.3 |
| 20260904042329 | 27 | 161 | 0.0 | 0.0 | 0.00 | 0.00 | 0.00 | 85 | 998.5 |
| 20260904042228 | 27 | 161 | 0.0 | 0.0 | 0.00 | 0.00 | 0.00 | 87 | 998.7 |
| 20260904042059 | 27 | 161 | 0.0 | 0.0 | 0.00 | 0.00 | 0.00 | 85 | 998.6 |
| 20260904041958 | 27 | 161 | 0.0 | 0.0 | 0.00 | 0.00 | 0.00 | 85 | 998.7 |
| 20260904041858 | 27 | 161 | 0.0 | 0.0 | 0.00 | 0.00 | 0.00 | 83 | 998.5 |
| 20260904041758 | 27 | 161 | 0.0 | 0.0 | 0.00 | 0.00 | 0.00 | 83 | 998.5 |
| 20260904041629 | 27 | 161 | 0.0 | 0.0 | 0.00 | 0.00 | 0.00 | 83 | 998.7 |
| 20260904041528 | 27 | 161 | 0.0 | 0.0 | 0.00 | 0.00 | 0.00 | 83 | 998.5 |
| 20260904041428 | 27 | 161 | 0.0 | 0.0 | 0.00 | 0.00 | 0.00 | 83 | 998.6 |
| 20260904041328 | 27 | 161 | 0.0 | 0.0 | 0.00 | 0.00 | 0.00 | 84 | 998.5 |
| 20260904041228 | 27 | 161 | 0.0 | 0.0 | 0.00 | 0.00 | 0.00 | 84 | 998.4 |
| 20260904041058 | 27 | 161 | 0.0 | 0.0 | 0.00 | 0.00 | 0.00 | 84 | 998.5 |
| 20260904040958 | 26 | 161 | 0.0 | 0.0 | 0.00 | 0.00 | 0.00 | 84 | 998.7 |
| 20260904040858 | 26 | 161 | 0.0 | 0.0 | 0.00 | 0.00 | 0.00 | 85 | 998.5 |
| 20260904040758 | 26 | 161 | 0.0 | 0.0 | 0.00 | 0.00 | 0.00 | 84 | 998.6 |
| 20260904040629 | 26 | 161 | 0.0 | 0.0 | 0.00 | 0.00 | 0.00 | 85 | 998.8 |
| 20260904040528 | 26 | 161 | 0.0 | 0.0 | 0.00 | 0.00 | 0.00 | 85 | 998.5 |
| 20260904040428 | 26 | 161 | 0.0 | 0.0 | 0.00 | 0.00 | 0.00 | 85 | 998.6 |
| 20260904040259 | 26 | 161 | 0.0 | 0.0 | 0.00 | 0.00 | 0.00 | 85 | 998.6 |
| 20260904040158 | 26 | 161 | 0.0 | 0.0 | 0.00 | 0.00 | 0.00 | 85 | 998.6 |
| 20260904040058 | 26 | 161 | 0.0 | 0.0 | 0.00 | 0.00 | 0.00 | 85 | 998.7 |
| 20260904035958 | 27 | 161 | 0.0 | 0.0 | 0.00 | 0.00 | 0.00 | 84 | 998.8 |
| 20260904035858 | 27 | 161 | 0.0 | 0.0 | 0.00 | 0.00 | 0.00 | 84 | 998.7 |
| 20260904035758 | 27 | 161 | 0.0 | 0.0 | 0.00 | 0.00 | 0.00 | 84 | 998.9 |
| 20260904035629 | 27 | 161 | 0.0 | 0.0 | 0.00 | 0.00 | 0.00 | 84 | 998.6 |
| 20260904035528 | 27 | 161 | 0.0 | 0.0 | 0.00 | 0.00 | 0.00 | 84 | 998.6 |
| 20260904035358 | 27 | 161 | 0.0 | 0.0 | 0.00 | 0.00 | 0.00 | 84 | 998.7 |
| 20260904035258 | 27 | 161 | 0.0 | 0.0 | 0.00 | 0.00 | 0.00 | 84 | 998.8 |
| 20260904035158 | 27 | 161 | 0.0 | 0.0 | 0.00 | 0.00 | 0.00 | 84 | 998.6 |
| 20260904035058 | 27 | 161 | 0.0 | 0.0 | 0.00 | 0.00 | 0.00 | 84 | 998.6 |
| 20260904034929 | 27 | 161 | 0.0 | 0.0 | 0.00 | 0.00 | 0.00 | 84 | 998.9 |
| 20260904034828 | 27 | 161 | 0.0 | 0.0 | 0.00 | 0.00 | 0.00 | 84 | 998.7 |
| 20260904034728 | 27 | 161 | 0.0 | 0.0 | 0.00 | 0.00 | 0.00 | 83 | 998.9 |
| 20260904034628 | 27 | 161 | 0.0 | 0.0 | 0.00 | 0.00 | 0.00 | 83 | 998.5 |
| 20260904034459 | 27 | 161 | 0.0 | 0.0 | 0.00 | 0.00 | 0.00 | 83 | 998.5 |
| 20260904034358 | 27 | 161 | 0.0 | 0.0 | 0.00 | 0.00 | 0.00 | 83 | 998.6 |
| 20260904034258 | 27 | 161 | 0.0 | 0.0 | 0.00 | 0.00 | 0.00 | 83 | 998.6 |
| 20260904034158 | 27 | 161 | 0.0 | 0.0 | 0.00 | 0.00 | 0.00 | 83 | 998.6 |
| 20260904034029 | 27 | 161 | 0.0 | 0.0 | 0.00 | 0.00 | 0.00 | 83 | 998.7 |
| 20260904033928 | 27 | 161 | 0.0 | 0.0 | 0.00 | 0.00 | 0.00 | 84 | 998.6 |
| 20260904033828 | 27 | 161 | 0.0 | 0.0 | 0.00 | 0.00 | 0.00 | 83 | 998.6 |
| 20260904033728 | 27 | 161 | 0.0 | 0.0 | 0.00 | 0.00 | 0.00 | 83 | 998.9 |
| 20260904033559 | 27 | 161 | 0.0 | 0.0 | 0.00 | 0.00 | 0.00 | 83 | 998.7 |
| 20260904033458 | 27 | 161 | 0.0 | 0.0 | 0.00 | 0.00 | 0.00 | 83 | 998.6 |
| 20260904033358 | 27 | 161 | 0.0 | 0.0 | 0.00 | 0.00 | 0.00 | 82 | 998.6 |
| 20260904033258 | 27 | 161 | 0.0 | 0.0 | 0.00 | 0.00 | 0.00 | 83 | 998.6 |
| 20260904033129 | 27 | 161 | 0.0 | 0.0 | 0.00 | 0.00 | 0.00 | 83 | 998.5 |
| 20260904033028 | 27 | 161 | 0.0 | 0.0 | 0.00 | 0.00 | 0.00 | 83 | 998.6 |
| 20260904032928 | 27 | 161 | 0.0 | 0.0 | 0.00 | 0.00 | 0.00 | 83 | 998.6 |
| 20260904032828 | 27 | 161 | 0.0 | 0.0 | 0.00 | 0.00 | 0.00 | 83 | 998.6 |
| 20260904032728 | 27 | 161 | 0.0 | 0.0 | 0.00 | 0.00 | 0.00 | 83 | 998.8 |
| 20260904032628 | 27 | 161 | 0.0 | 0.0 | 0.00 | 0.00 | 0.00 | 84 | 998.9 |
| 20260904032459 | 27 | 161 | 0.0 | 0.0 | 0.00 | 0.00 | 0.00 | 85 | 998.5 |
| 20260904032358 | 27 | 161 | 0.0 | 0.0 | 0.00 | 0.00 | 0.00 | 83 | 998.6 |
| 20260904032229 | 27 | 161 | 0.0 | 0.0 | 0.00 | 0.00 | 0.00 | 83 | 998.6 |
| 20260904032128 | 27 | 161 | 0.0 | 0.0 | 0.00 | 0.00 | 0.00 | 83 | 998.6 |
| 20260904032028 | 27 | 161 | 0.0 | 0.0 | 0.00 | 0.00 | 0.00 | 83 | 998.4 |
| 20260904031928 | 27 | 161 | 0.0 | 0.0 | 0.00 | 0.00 | 0.00 | 83 | 998.4 |
| 20260904031759 | 27 | 161 | 0.0 | 0.0 | 0.00 | 0.00 | 0.00 | 82 | 998.5 |
| 20260904031658 | 27 | 161 | 0.0 | 0.0 | 0.00 | 0.00 | 0.00 | 82 | 998.5 |
| 20260904031558 | 27 | 161 | 0.0 | 0.0 | 0.00 | 0.00 | 0.00 | 83 | 998.5 |
| 20260904031458 | 27 | 161 | 0.0 | 0.0 | 0.00 | 0.00 | 0.00 | 82 | 998.6 |
| 20260904031358 | 27 | 161 | 0.0 | 0.0 | 0.00 | 0.00 | 0.00 | 83 | 998.5 |
| 20260904031258 | 27 | 161 | 0.0 | 0.0 | 0.00 | 0.00 | 0.00 | 83 | 998.7 |
| 20260904031158 | 27 | 161 | 0.0 | 0.0 | 0.00 | 0.00 | 0.00 | 85 | 998.4 |
| 20260904031058 | 27 | 161 | 0.0 | 0.0 | 0.00 | 0.00 | 0.00 | 84 | 998.3 |
| 20260904030958 | 27 | 161 | 0.0 | 0.0 | 0.00 | 0.00 | 0.00 | 84 | 998.5 |
| 20260904030828 | 27 | 161 | 0.0 | 0.0 | 0.00 | 0.00 | 0.00 | 83 | 998.5 |
| 20260904030728 | 27 | 161 | 0.0 | 0.0 | 0.00 | 0.00 | 0.00 | 82 | 998.5 |
| 20260904030559 | 27 | 161 | 0.0 | 0.0 | 0.00 | 0.00 | 0.00 | 82 | 998.5 |
| 20260904030429 | 27 | 161 | 0.0 | 0.0 | 0.00 | 0.00 | 0.00 | 83 | 998.6 |
| 20260904030328 | 27 | 161 | 0.0 | 0.0 | 0.00 | 0.00 | 0.00 | 83 | 998.6 |
| 20260904030228 | 27 | 161 | 0.0 | 0.0 | 0.00 | 0.00 | 0.00 | 84 | 998.7 |
| 20260904030128 | 27 | 161 | 0.0 | 0.0 | 0.00 | 0.00 | 0.00 | 84 | 998.5 |
| 20260904025959 | 27 | 161 | 0.0 | 0.0 | 0.00 | 0.00 | 0.00 | 83 | 998.7 |
| 20260904025858 | 27 | 161 | 0.0 | 0.0 | 0.00 | 0.00 | 0.00 | 83 | 998.3 |
| 20260904025758 | 27 | 161 | 0.0 | 0.0 | 0.00 | 0.00 | 0.00 | 83 | 998.6 |
| 20260904025658 | 27 | 161 | 0.0 | 0.0 | 0.00 | 0.00 | 0.00 | 83 | 998.5 |
| 20260904025558 | 27 | 161 | 0.0 | 0.0 | 0.00 | 0.00 | 0.00 | 82 | 998.4 |
| 20260904025458 | 27 | 161 | 0.0 | 0.0 | 0.00 | 0.00 | 0.00 | 83 | 998.5 |
| 20260904025328 | 27 | 161 | 0.0 | 0.0 | 0.00 | 0.00 | 0.00 | 83 | 998.4 |
| 20260904025229 | 27 | 161 | 0.0 | 1.6 | 0.00 | 0.00 | 0.00 | 82 | 998.6 |
| 20260904025128 | 27 | 161 | 0.0 | 0.0 | 0.00 | 0.00 | 0.00 | 84 | 998.5 |
| 20260904024959 | 27 | 161 | 0.0 | 0.0 | 0.00 | 0.00 | 0.00 | 85 | 998.6 |
| 20260904024858 | 27 | 161 | 0.0 | 0.0 | 0.00 | 0.00 | 0.00 | 84 | 998.4 |
| 20260904024758 | 27 | 161 | 0.0 | 0.0 | 0.00 | 0.00 | 0.00 | 84 | 998.5 |
| 20260904024629 | 27 | 161 | 0.0 | 0.0 | 0.00 | 0.00 | 0.00 | 84 | 998.6 |
| 20260904024459 | 27 | 161 | 0.0 | 0.0 | 0.00 | 0.00 | 0.00 | 83 | 998.4 |
| 20260904024328 | 27 | 161 | 0.0 | 0.0 | 0.00 | 0.00 | 0.00 | 83 | 998.7 |
| 20260904024158 | 27 | 161 | 0.0 | 0.0 | 0.00 | 0.00 | 0.00 | 83 | 998.6 |
| 20260904024058 | 27 | 161 | 0.0 | 0.0 | 0.00 | 0.00 | 0.00 | 83 | 998.5 |
| 20260904023958 | 27 | 161 | 0.0 | 0.0 | 0.00 | 0.00 | 0.00 | 83 | 998.5 |
| 20260904023858 | 27 | 161 | 0.0 | 0.0 | 0.00 | 0.00 | 0.00 | 82 | 998.5 |
| 20260904023729 | 27 | 161 | 0.0 | 0.0 | 0.00 | 0.00 | 0.00 | 82 | 998.5 |
| 20260904023628 | 27 | 161 | 0.0 | 0.0 | 0.00 | 0.00 | 0.00 | 82 | 998.6 |
| 20260904023528 | 27 | 161 | 0.0 | 0.0 | 0.00 | 0.00 | 0.00 | 82 | 998.5 |
| 20260904023428 | 27 | 161 | 0.0 | 0.0 | 0.00 | 0.00 | 0.00 | 82 | 998.7 |
| 20260904023259 | 27 | 161 | 0.0 | 0.0 | 0.00 | 0.00 | 0.00 | 82 | 998.6 |
| 20260904023158 | 27 | 161 | 0.0 | 0.0 | 0.00 | 0.00 | 0.00 | 82 | 998.6 |
| 20260904023058 | 27 | 161 | 0.0 | 0.0 | 0.00 | 0.00 | 0.00 | 82 | 998.8 |
| 20260904022958 | 27 | 161 | 0.0 | 0.0 | 0.00 | 0.00 | 0.00 | 82 | 998.5 |
| 20260904022830 | 28 | 161 | 0.0 | 0.0 | 0.00 | 0.00 | 0.00 | 82 | 998.4 |
| 20260904022728 | 28 | 161 | 0.0 | 0.0 | 0.00 | 0.00 | 0.00 | 81 | 998.7 |
| 20260904022558 | 28 | 161 | 0.0 | 0.0 | 0.00 | 0.00 | 0.00 | 81 | 998.6 |
| 20260904022458 | 28 | 161 | 0.0 | 0.0 | 0.00 | 0.00 | 0.00 | 81 | 998.5 |
| 20260904022330 | 28 | 161 | 0.0 | 0.0 | 0.00 | 0.00 | 0.00 | 81 | 998.7 |
| 20260904022228 | 28 | 161 | 0.0 | 0.0 | 0.00 | 0.00 | 0.00 | 81 | 998.5 |
| 20260904022129 | 28 | 161 | 0.0 | 0.0 | 0.00 | 0.00 | 0.00 | 80 | 998.6 |
| 20260904022028 | 28 | 161 | 0.0 | 0.0 | 0.00 | 0.00 | 0.00 | 80 | 998.6 |
| 20260904021928 | 28 | 161 | 0.0 | 1.6 | 0.00 | 0.00 | 0.00 | 80 | 998.5 |
| 20260904021759 | 27 | 161 | 0.0 | 0.0 | 0.00 | 0.00 | 0.00 | 80 | 998.5 |
| 20260904021658 | 27 | 161 | 0.0 | 0.0 | 0.00 | 0.00 | 0.00 | 81 | 998.4 |
| 20260904021529 | 27 | 161 | 0.0 | 0.0 | 0.00 | 0.00 | 0.00 | 81 | 998.6 |
| 20260904021428 | 27 | 161 | 0.0 | 0.0 | 0.00 | 0.00 | 0.00 | 82 | 998.4 |
| 20260904021328 | 27 | 161 | 0.0 | 0.0 | 0.00 | 0.00 | 0.00 | 82 | 998.5 |
| 20260904021228 | 27 | 161 | 0.0 | 0.0 | 0.00 | 0.00 | 0.00 | 82 | 998.5 |
| 20260904021059 | 27 | 161 | 0.0 | 0.0 | 0.00 | 0.00 | 0.00 | 81 | 998.5 |
| 20260904020958 | 27 | 161 | 0.0 | 0.0 | 0.00 | 0.00 | 0.00 | 82 | 998.5 |
| 20260904020858 | 27 | 161 | 0.0 | 0.0 | 0.00 | 0.00 | 0.00 | 83 | 998.5 |
| 20260904020729 | 27 | 161 | 0.0 | 0.0 | 0.00 | 0.00 | 0.00 | 83 | 998.4 |
| 20260904020629 | 27 | 161 | 0.0 | 0.0 | 0.00 | 0.00 | 0.00 | 82 | 998.3 |
| 20260904020528 | 27 | 161 | 0.0 | 0.0 | 0.00 | 0.00 | 0.00 | 83 | 998.5 |
| 20260904020428 | 27 | 161 | 0.0 | 0.0 | 0.00 | 0.00 | 0.00 | 82 | 998.4 |
| 20260904020328 | 27 | 161 | 0.0 | 0.0 | 0.00 | 0.00 | 0.00 | 82 | 998.3 |
| 20260904020228 | 27 | 161 | 0.0 | 0.0 | 0.00 | 0.00 | 0.00 | 82 | 998.3 |
| 20260904020128 | 27 | 161 | 0.0 | 0.0 | 0.00 | 0.00 | 0.00 | 82 | 998.3 |
| 20260904020028 | 27 | 161 | 0.0 | 0.0 | 0.00 | 0.00 | 0.00 | 82 | 998.3 |
| 20260904015928 | 27 | 161 | 0.0 | 0.0 | 0.00 | 0.00 | 0.00 | 82 | 998.3 |
| 20260904015828 | 27 | 161 | 0.0 | 0.0 | 0.00 | 0.00 | 0.00 | 82 | 998.2 |
| 20260904015659 | 27 | 161 | 0.0 | 0.0 | 0.00 | 0.00 | 0.00 | 82 | 998.3 |
| 20260904015558 | 27 | 161 | 0.0 | 0.0 | 0.00 | 0.00 | 0.00 | 82 | 998.4 |
| 20260904015458 | 27 | 161 | 0.0 | 0.0 | 0.00 | 0.00 | 0.00 | 82 | 998.3 |
| 20260904015358 | 27 | 161 | 0.0 | 0.0 | 0.00 | 0.00 | 0.00 | 82 | 998.4 |
| 20260904015258 | 27 | 161 | 0.0 | 0.0 | 0.00 | 0.00 | 0.00 | 82 | 998.3 |
| 20260904015158 | 27 | 161 | 0.0 | 0.0 | 0.00 | 0.00 | 0.00 | 82 | 998.4 |
| 20260904015034 | 27 | 161 | 0.0 | 0.0 | 0.00 | 0.00 | 0.00 | 81 | 998.4 |
| 20260904014928 | 27 | 161 | 0.0 | 0.0 | 0.00 | 0.00 | 0.00 | 81 | 998.3 |
| 20260904014828 | 27 | 161 | 0.0 | 0.0 | 0.00 | 0.00 | 0.00 | 81 | 998.3 |
| 20260904014728 | 27 | 161 | 0.0 | 0.0 | 0.00 | 0.00 | 0.00 | 81 | 998.1 |
| 20260904014558 | 27 | 161 | 0.0 | 0.0 | 0.00 | 0.00 | 0.00 | 81 | 998.2 |
| 20260904014429 | 27 | 161 | 0.0 | 0.0 | 0.00 | 0.00 | 0.00 | 81 | 998.1 |
| 20260904014328 | 27 | 161 | 0.0 | 0.0 | 0.00 | 0.00 | 0.00 | 82 | 997.9 |
| 20260904014228 | 27 | 161 | 0.0 | 0.0 | 0.00 | 0.00 | 0.00 | 83 | 998.0 |
| 20260904014128 | 27 | 161 | 0.0 | 0.0 | 0.00 | 0.00 | 0.00 | 82 | 998.0 |
| 20260904014000 | 27 | 161 | 0.0 | 0.0 | 0.00 | 0.00 | 0.00 | 82 | 998.0 |
| 20260904013858 | 27 | 161 | 0.0 | 0.0 | 0.00 | 0.00 | 0.00 | 82 | 998.0 |
| 20260904013758 | 27 | 161 | 0.0 | 0.0 | 0.00 | 0.00 | 0.00 | 82 | 998.1 |
| 20260904013658 | 27 | 161 | 0.0 | 0.0 | 0.00 | 0.00 | 0.00 | 82 | 997.8 |
| 20260904013558 | 27 | 161 | 0.0 | 0.0 | 0.00 | 0.00 | 0.00 | 82 | 998.1 |
| 20260904013458 | 28 | 161 | 0.0 | 0.0 | 0.00 | 0.00 | 0.00 | 83 | 997.9 |
| 20260904013358 | 28 | 161 | 0.0 | 0.0 | 0.00 | 0.00 | 0.00 | 84 | 998.1 |
| 20260904013258 | 28 | 161 | 0.0 | 0.0 | 0.00 | 0.00 | 0.00 | 86 | 998.1 |
| 20260904013158 | 28 | 161 | 0.0 | 0.0 | 0.00 | 0.00 | 0.00 | 87 | 998.1 |
| 20260904013058 | 28 | 161 | 0.0 | 0.0 | 0.00 | 0.00 | 0.00 | 88 | 998.0 |
| 20260904012928 | 28 | 161 | 0.0 | 0.0 | 0.00 | 0.00 | 0.00 | 86 | 998.0 |
| 20260904012828 | 28 | 161 | 0.0 | 0.0 | 0.00 | 0.00 | 0.00 | 86 | 998.1 |
| 20260904012728 | 28 | 161 | 0.0 | 0.0 | 0.00 | 0.00 | 0.00 | 85 | 998.1 |
| 20260904012628 | 28 | 161 | 0.0 | 0.0 | 0.00 | 0.00 | 0.00 | 85 | 997.9 |
| 20260904012459 | 28 | 162 | 0.0 | 0.0 | 0.00 | 0.00 | 0.00 | 84 | 998.1 |
| 20260904012358 | 28 | 162 | 0.0 | 0.0 | 0.00 | 0.00 | 0.00 | 85 | 998.2 |
| 20260904012258 | 28 | 162 | 0.0 | 0.0 | 0.00 | 0.00 | 0.00 | 85 | 998.0 |
| 20260904012158 | 28 | 162 | 0.0 | 0.0 | 0.00 | 0.00 | 0.00 | 85 | 998.2 |
| 20260904012058 | 28 | 162 | 0.0 | 0.0 | 0.00 | 0.00 | 0.00 | 84 | 998.0 |
| 20260904011929 | 28 | 162 | 0.0 | 0.0 | 0.00 | 0.00 | 0.00 | 84 | 998.0 |
| 20260904011828 | 28 | 162 | 0.0 | 0.0 | 0.00 | 0.00 | 0.00 | 84 | 998.1 |
| 20260904011728 | 28 | 162 | 0.0 | 0.0 | 0.00 | 0.00 | 0.00 | 84 | 997.9 |
| 20260904011628 | 28 | 162 | 0.0 | 0.0 | 0.00 | 0.00 | 0.00 | 81 | 998.0 |
| 20260904011528 | 28 | 162 | 0.0 | 0.0 | 0.00 | 0.00 | 0.00 | 80 | 998.0 |
| 20260904011358 | 28 | 162 | 0.0 | 0.0 | 0.00 | 0.00 | 0.00 | 78 | 998.3 |
| 20260904011258 | 28 | 162 | 0.0 | 0.0 | 0.00 | 0.00 | 0.00 | 78 | 998.0 |
| 20260904011158 | 28 | 162 | 0.0 | 0.0 | 0.00 | 0.00 | 0.00 | 78 | 998.0 |
| 20260904011058 | 28 | 162 | 0.0 | 0.0 | 0.00 | 0.00 | 0.00 | 78 | 998.0 |
| 20260904010958 | 28 | 162 | 0.0 | 0.0 | 0.00 | 0.00 | 0.00 | 77 | 998.1 |
| 20260904010829 | 28 | 162 | 0.0 | 0.0 | 0.00 | 0.00 | 0.00 | 77 | 998.1 |
| 20260904010728 | 28 | 162 | 0.0 | 0.0 | 0.00 | 0.00 | 0.00 | 77 | 997.8 |
| 20260904010628 | 28 | 162 | 0.0 | 0.0 | 0.00 | 0.00 | 0.00 | 77 | 997.9 |
| 20260904010528 | 28 | 162 | 0.0 | 0.0 | 0.00 | 0.00 | 0.00 | 77 | 998.0 |
| 20260904010359 | 28 | 162 | 0.0 | 0.0 | 0.00 | 0.00 | 0.00 | 77 | 998.0 |
| 20260904010258 | 28 | 162 | 0.0 | 0.0 | 0.00 | 0.00 | 0.00 | 77 | 998.0 |
| 20260904010158 | 28 | 162 | 0.0 | 0.0 | 0.00 | 0.00 | 0.00 | 77 | 997.9 |
| 20260904010058 | 28 | 162 | 0.0 | 0.0 | 0.00 | 0.00 | 0.00 | 77 | 998.0 |
| 20260904005958 | 28 | 162 | 0.0 | 0.0 | 0.00 | 0.00 | 0.00 | 77 | 997.8 |
| 20260904005829 | 28 | 162 | 0.0 | 0.0 | 0.00 | 0.00 | 0.00 | 77 | 997.8 |
| 20260904005728 | 28 | 162 | 0.0 | 0.0 | 0.00 | 0.00 | 0.00 | 77 | 997.9 |
| 20260904005559 | 29 | 162 | 0.0 | 0.0 | 0.00 | 0.00 | 0.00 | 76 | 997.9 |
| 20260904005458 | 29 | 162 | 0.0 | 0.0 | 0.00 | 0.00 | 0.00 | 76 | 997.8 |
| 20260904005358 | 29 | 162 | 0.0 | 0.0 | 0.00 | 0.00 | 0.00 | 76 | 997.9 |
| 20260904005258 | 29 | 162 | 0.0 | 0.0 | 0.00 | 0.00 | 0.00 | 76 | 997.9 |
| 20260904005129 | 29 | 162 | 0.0 | 0.0 | 0.00 | 0.00 | 0.00 | 76 | 997.9 |
| 20260904005028 | 29 | 162 | 0.0 | 0.0 | 0.00 | 0.00 | 0.00 | 76 | 997.8 |
| 20260904004928 | 29 | 162 | 0.0 | 0.0 | 0.00 | 0.00 | 0.00 | 76 | 998.0 |
| 20260904004828 | 29 | 162 | 0.0 | 0.0 | 0.00 | 0.00 | 0.00 | 75 | 997.8 |
| 20260904004659 | 29 | 162 | 0.0 | 0.0 | 0.00 | 0.00 | 0.00 | 75 | 997.9 |
| 20260904004558 | 29 | 162 | 0.0 | 0.0 | 0.00 | 0.00 | 0.00 | 75 | 998.1 |
| 20260904004458 | 29 | 162 | 0.0 | 0.0 | 0.00 | 0.00 | 0.00 | 75 | 998.0 |
| 20260904004358 | 30 | 162 | 0.0 | 0.0 | 0.00 | 0.00 | 0.00 | 76 | 998.1 |
| 20260904004258 | 30 | 162 | 0.0 | 0.0 | 0.00 | 0.00 | 0.00 | 77 | 997.7 |
| 20260904004158 | 30 | 162 | 0.0 | 0.0 | 0.00 | 0.00 | 0.00 | 78 | 997.6 |
| 20260904004058 | 30 | 162 | 0.0 | 0.0 | 0.00 | 0.00 | 0.00 | 78 | 997.9 |
| 20260904003958 | 30 | 162 | 0.0 | 0.0 | 0.00 | 0.00 | 0.00 | 78 | 997.7 |
| 20260904003829 | 30 | 162 | 0.0 | 0.0 | 0.00 | 0.00 | 0.00 | 78 | 997.8 |
| 20260904003659 | 30 | 162 | 0.0 | 0.0 | 0.00 | 0.00 | 0.00 | 76 | 997.9 |
| 20260904003558 | 30 | 162 | 0.0 | 0.0 | 0.00 | 0.00 | 0.00 | 74 | 997.7 |
| 20260904003458 | 30 | 162 | 0.0 | 0.0 | 0.00 | 0.00 | 0.00 | 73 | 997.9 |
| 20260904003329 | 30 | 162 | 0.0 | 0.0 | 0.00 | 0.00 | 0.00 | 73 | 997.8 |
| 20260904003228 | 30 | 162 | 0.0 | 0.0 | 0.00 | 0.00 | 0.00 | 73 | 997.7 |
| 20260904003128 | 30 | 162 | 0.0 | 0.0 | 0.00 | 0.00 | 0.00 | 73 | 997.9 |
| 20260904003028 | 30 | 162 | 0.0 | 0.0 | 0.00 | 0.00 | 0.00 | 73 | 997.9 |
| 20260904002900 | 30 | 162 | 0.0 | 0.0 | 0.00 | 0.00 | 0.00 | 73 | 997.8 |
| 20260904002758 | 30 | 162 | 0.0 | 0.0 | 0.00 | 0.00 | 0.00 | 72 | 998.0 |
| 20260904002658 | 30 | 162 | 0.0 | 0.0 | 0.00 | 0.00 | 0.00 | 72 | 997.6 |
| 20260904002558 | 30 | 162 | 0.0 | 0.0 | 0.00 | 0.00 | 0.00 | 72 | 997.9 |
| 20260904002458 | 30 | 162 | 0.0 | 0.0 | 0.00 | 0.00 | 0.00 | 72 | 997.7 |
| 20260904002358 | 30 | 162 | 0.0 | 0.0 | 0.00 | 0.00 | 0.00 | 72 | 997.8 |
| 20260904002258 | 30 | 162 | 0.0 | 0.0 | 0.00 | 0.00 | 0.00 | 72 | 997.5 |
| 20260904002128 | 30 | 162 | 0.0 | 0.0 | 0.00 | 0.00 | 0.00 | 72 | 997.9 |
| 20260904002028 | 30 | 163 | 0.0 | 0.0 | 0.00 | 0.00 | 0.00 | 72 | 998.1 |
| 20260904001928 | 30 | 162 | 0.0 | 0.0 | 0.00 | 0.00 | 0.00 | 72 | 997.9 |
| 20260904001828 | 30 | 163 | 0.0 | 0.0 | 0.00 | 0.00 | 0.00 | 72 | 997.7 |
| 20260904001728 | 30 | 162 | 0.0 | 0.0 | 0.00 | 0.00 | 0.00 | 72 | 997.7 |
| 20260904001600 | 30 | 163 | 0.0 | 0.0 | 0.00 | 0.00 | 0.00 | 72 | 997.8 |
| 20260904001458 | 30 | 163 | 0.0 | 0.0 | 0.00 | 0.00 | 0.00 | 72 | 997.7 |
| 20260904001331 | 30 | 162 | 0.0 | 0.0 | 0.00 | 0.00 | 0.00 | 72 | 997.7 |
| 20260904001229 | 30 | 162 | 0.0 | 0.0 | 0.00 | 0.00 | 0.00 | 72 | 997.8 |
| 20260904001059 | 30 | 162 | 0.0 | 0.0 | 0.00 | 0.00 | 0.00 | 71 | 997.7 |
| 20260904000958 | 30 | 162 | 0.0 | 0.0 | 0.00 | 0.00 | 0.00 | 71 | 997.7 |
| 20260904000858 | 30 | 162 | 0.0 | 0.0 | 0.00 | 0.00 | 0.00 | 72 | 997.6 |
| 20260904000758 | 31 | 162 | 0.0 | 0.0 | 0.00 | 0.00 | 0.00 | 73 | 997.6 |
| 20260904000658 | 31 | 162 | 0.0 | 0.0 | 0.00 | 0.00 | 0.00 | 75 | 997.8 |
| 20260904000529 | 31 | 162 | 0.0 | 0.0 | 0.00 | 0.00 | 0.00 | 73 | 997.7 |
| 20260904000428 | 31 | 162 | 0.0 | 0.0 | 0.00 | 0.00 | 0.00 | 71 | 997.8 |
| 20260904000328 | 31 | 162 | 0.0 | 0.0 | 0.00 | 0.00 | 0.00 | 71 | 997.5 |
| 20260904000159 | 31 | 162 | 0.0 | 0.0 | 0.00 | 0.00 | 0.00 | 71 | 997.7 |
| 20260904000058 | 31 | 162 | 0.0 | 0.0 | 0.00 | 0.00 | 0.00 | 71 | 997.7 |
| 20260903235958 | 31 | 162 | 0.0 | 0.0 | 0.00 | 0.00 | 0.00 | 72 | 997.6 |
| 20260903235858 | 31 | 162 | 0.0 | 0.0 | 0.00 | 0.00 | 0.00 | 70 | 997.6 |
| 20260903235729 | 31 | 162 | 0.0 | 0.0 | 0.00 | 0.00 | 0.00 | 69 | 997.7 |
| 20260903235628 | 31 | 162 | 0.0 | 0.0 | 0.00 | 0.00 | 0.00 | 71 | 997.7 |
| 20260903235528 | 31 | 162 | 0.0 | 0.0 | 0.00 | 0.00 | 0.00 | 71 | 997.5 |
| 20260903235428 | 31 | 162 | 0.0 | 0.0 | 0.00 | 0.00 | 0.00 | 70 | 997.6 |
| 20260903235259 | 31 | 162 | 0.0 | 0.0 | 0.00 | 0.00 | 0.00 | 71 | 997.6 |
| 20260903235158 | 31 | 162 | 0.0 | 0.0 | 0.00 | 0.00 | 0.00 | 71 | 997.6 |
| 20260903235058 | 32 | 162 | 0.0 | 0.0 | 0.00 | 0.00 | 0.00 | 69 | 997.8 |
| 20260903234958 | 32 | 162 | 0.0 | 0.0 | 0.00 | 0.00 | 0.00 | 68 | 997.5 |
| 20260903234829 | 32 | 162 | 0.0 | 0.0 | 0.00 | 0.00 | 0.00 | 67 | 997.6 |
| 20260903234728 | 32 | 162 | 0.0 | 0.0 | 0.00 | 0.00 | 0.00 | 67 | 997.5 |
| 20260903234628 | 32 | 162 | 0.0 | 0.0 | 0.00 | 0.00 | 0.00 | 66 | 997.7 |
| 20260903234528 | 32 | 162 | 0.0 | 0.0 | 0.00 | 0.00 | 0.00 | 66 | 997.7 |
| 20260903234359 | 32 | 162 | 0.0 | 0.0 | 0.00 | 0.00 | 0.00 | 65 | 997.4 |
| 20260903234258 | 32 | 162 | 0.0 | 0.0 | 0.00 | 0.00 | 0.00 | 65 | 997.6 |
| 20260903234158 | 32 | 162 | 0.0 | 0.0 | 0.00 | 0.00 | 0.00 | 64 | 997.5 |
| 20260903234058 | 32 | 162 | 0.0 | 0.0 | 0.00 | 0.00 | 0.00 | 64 | 997.6 |
| 20260903233958 | 32 | 162 | 0.0 | 0.0 | 0.00 | 0.00 | 0.00 | 64 | 997.6 |
| 20260903233829 | 32 | 162 | 0.0 | 0.0 | 0.00 | 0.00 | 0.00 | 64 | 997.5 |
| 20260903233729 | 32 | 162 | 0.0 | 0.0 | 0.00 | 0.00 | 0.00 | 63 | 997.5 |
| 20260903233629 | 32 | 162 | 0.0 | 0.0 | 0.00 | 0.00 | 0.00 | 63 | 997.6 |
| 20260903233529 | 32 | 162 | 0.0 | 0.0 | 0.00 | 0.00 | 0.00 | 63 | 997.5 |
| 20260903233428 | 32 | 162 | 0.0 | 0.0 | 0.00 | 0.00 | 0.00 | 63 | 997.5 |
| 20260903233328 | 32 | 162 | 0.0 | 0.0 | 0.00 | 0.00 | 0.00 | 63 | 997.5 |
| 20260903233228 | 32 | 162 | 0.0 | 0.0 | 0.00 | 0.00 | 0.00 | 63 | 997.5 |
| 20260903233058 | 32 | 162 | 0.0 | 0.0 | 0.00 | 0.00 | 0.00 | 63 | 997.5 |
| 20260903233017 | 32 | 162 | 0.0 | 0.0 | 0.00 | 0.00 | 0.00 | 63 | 997.6 |
| 20260903232858 | 32 | 162 | 0.0 | 0.0 | 0.00 | 0.00 | 0.00 | 62 | 997.5 |
| 20260903232758 | 33 | 162 | 0.0 | 0.0 | 0.00 | 0.00 | 0.00 | 63 | 997.4 |
| 20260903232658 | 33 | 162 | 0.0 | 0.0 | 0.00 | 0.00 | 0.00 | 63 | 997.4 |
| 20260903232558 | 33 | 162 | 0.0 | 0.0 | 0.00 | 0.00 | 0.00 | 62 | 997.1 |
| 20260903232458 | 33 | 162 | 0.0 | 0.0 | 0.00 | 0.00 | 0.00 | 62 | 997.3 |
| 20260903232329 | 33 | 162 | 0.0 | 0.0 | 0.00 | 0.00 | 0.00 | 61 | 997.4 |
| 20260903232228 | 33 | 162 | 0.0 | 0.0 | 0.00 | 0.00 | 0.00 | 61 | 997.6 |
| 20260903232128 | 33 | 162 | 0.0 | 0.0 | 0.00 | 0.00 | 0.00 | 61 | 997.5 |
| 20260903232028 | 33 | 162 | 0.0 | 0.0 | 0.00 | 0.00 | 0.00 | 60 | 997.3 |
| 20260903231928 | 33 | 162 | 0.0 | 0.0 | 0.00 | 0.00 | 0.00 | 60 | 997.6 |
| 20260903231759 | 33 | 162 | 0.0 | 0.0 | 0.00 | 0.00 | 0.00 | 59 | 997.5 |
| 20260903231658 | 33 | 162 | 0.0 | 0.0 | 0.00 | 0.00 | 0.00 | 59 | 997.8 |
| 20260903231558 | 33 | 162 | 0.0 | 0.0 | 0.00 | 0.00 | 0.00 | 59 | 997.3 |
| 20260903231458 | 33 | 162 | 0.0 | 0.0 | 0.00 | 0.00 | 0.00 | 57 | 997.4 |
| 20260903231329 | 33 | 162 | 0.0 | 0.0 | 0.00 | 0.00 | 0.00 | 58 | 997.4 |
| 20260903231228 | 33 | 162 | 0.0 | 0.0 | 0.00 | 0.00 | 0.00 | 58 | 997.6 |
| 20260903231128 | 33 | 162 | 0.0 | 0.0 | 0.00 | 0.00 | 0.00 | 58 | 997.4 |
| 20260903231028 | 33 | 162 | 0.0 | 0.0 | 0.00 | 0.00 | 0.00 | 58 | 997.6 |
| 20260903230928 | 33 | 162 | 0.0 | 0.0 | 0.00 | 0.00 | 0.00 | 57 | 997.5 |
| 20260903230828 | 33 | 162 | 0.0 | 0.0 | 0.00 | 0.00 | 0.00 | 58 | 997.4 |
| 20260903230728 | 34 | 162 | 0.0 | 1.6 | 0.00 | 0.00 | 0.00 | 59 | 997.4 |
| 20260903230559 | 34 | 162 | 0.0 | 0.0 | 0.00 | 0.00 | 0.00 | 58 | 997.4 |
| 20260903230458 | 34 | 162 | 0.0 | 0.0 | 0.00 | 0.00 | 0.00 | 59 | 997.5 |
| 20260903230358 | 34 | 162 | 0.0 | 0.0 | 0.00 | 0.00 | 0.00 | 58 | 997.5 |
| 20260903230228 | 34 | 163 | 0.0 | 0.0 | 0.00 | 0.00 | 0.00 | 58 | 997.3 |
| 20260903230128 | 34 | 162 | 0.0 | 0.0 | 0.00 | 0.00 | 0.00 | 59 | 997.2 |
| 20260903225959 | 34 | 162 | 0.0 | 0.0 | 0.00 | 0.00 | 0.00 | 59 | 997.3 |
| 20260903225858 | 34 | 162 | 0.0 | 1.6 | 0.00 | 0.00 | 0.00 | 58 | 997.4 |
| 20260903225758 | 34 | 161 | 0.0 | 0.0 | 0.00 | 0.00 | 0.00 | 55 | 997.4 |
| 20260903225658 | 34 | 162 | 0.0 | 0.0 | 0.00 | 0.00 | 0.00 | 59 | 997.3 |
| 20260903225529 | 34 | 161 | 0.0 | 1.6 | 0.00 | 0.00 | 0.00 | 56 | 997.3 |
| 20260903225428 | 34 | 158 | 0.0 | 0.0 | 0.00 | 0.00 | 0.00 | 56 | 997.3 |
| 20260903225328 | 35 | 161 | 0.0 | 0.0 | 0.00 | 0.00 | 0.00 | 55 | 997.2 |
| 20260903225228 | 35 | 161 | 0.0 | 1.6 | 0.00 | 0.00 | 0.00 | 58 | 997.4 |
| 20260903225128 | 35 | 165 | 0.0 | 0.0 | 0.00 | 0.00 | 0.00 | 57 | 997.0 |
| 20260903224959 | 35 | 113 | 0.0 | 0.0 | 0.00 | 0.00 | 0.00 | 56 | 997.3 |
| 20260903224858 | 35 | 113 | 0.0 | 0.0 | 0.00 | 0.00 | 0.00 | 57 | 997.3 |
| 20260903224729 | 35 | 160 | 0.0 | 1.6 | 0.00 | 0.00 | 0.00 | 58 | 997.0 |
| 20260903224559 | 35 | 153 | 0.0 | 1.6 | 0.00 | 0.00 | 0.00 | 54 | 997.1 |
| 20260903224458 | 35 | 151 | 0.0 | 0.0 | 0.00 | 0.00 | 0.00 | 54 | 997.1 |
| 20260903224358 | 35 | 161 | 0.0 | 0.0 | 0.00 | 0.00 | 0.00 | 54 | 997.2 |
| 20260903224258 | 35 | 161 | 0.0 | 0.0 | 0.00 | 0.00 | 0.00 | 54 | 997.3 |
| 20260903224129 | 35 | 161 | 0.0 | 0.0 | 0.00 | 0.00 | 0.00 | 53 | 997.2 |
| 20260903224028 | 35 | 161 | 0.0 | 1.6 | 0.00 | 0.00 | 0.00 | 53 | 997.2 |
| 20260903223859 | 35 | 161 | 0.0 | 1.6 | 0.00 | 0.00 | 0.00 | 52 | 997.2 |
| 20260903223729 | 35 | 172 | 1.6 | 3.2 | 0.00 | 0.00 | 0.00 | 52 | 997.3 |
| 20260903223628 | 35 | 147 | 0.0 | 0.0 | 0.00 | 0.00 | 0.00 | 56 | 997.1 |
| 20260903223528 | 35 | 139 | 1.6 | 3.2 | 0.00 | 0.00 | 0.00 | 53 | 997.3 |
| 20260903223428 | 35 | 190 | 3.2 | 4.8 | 0.00 | 0.00 | 0.00 | 52 | 997.2 |
| 20260903223328 | 35 | 170 | 4.8 | 4.8 | 0.00 | 0.00 | 0.00 | 52 | 997.4 |
| 20260903223228 | 35 | 76 | 3.2 | 4.8 | 0.00 | 0.00 | 0.00 | 53 | 997.1 |
| 20260903223059 | 35 | 146 | 3.2 | 3.2 | 0.00 | 0.00 | 0.00 | 53 | 997.4 |
| 20260903222958 | 36 | 198 | 3.2 | 4.8 | 0.00 | 0.00 | 0.00 | 51 | 997.4 |
| 20260903222829 | 36 | 204 | 3.2 | 3.2 | 0.00 | 0.00 | 0.00 | 50 | 997.3 |
| 20260903222728 | 36 | 208 | 0.0 | 0.0 | 0.00 | 0.00 | 0.00 | 51 | 997.3 |
| 20260903222628 | 36 | 209 | 0.0 | 0.0 | 0.00 | 0.00 | 0.00 | 53 | 997.2 |
| 20260903222528 | 35 | 208 | 0.0 | 0.0 | 0.00 | 0.00 | 0.00 | 52 | 997.3 |
| 20260903222428 | 35 | 208 | 1.6 | 3.2 | 0.00 | 0.00 | 0.00 | 53 | 997.3 |
| 20260903222258 | 35 | 153 | 0.0 | 0.0 | 0.00 | 0.00 | 0.00 | 51 | 997.3 |
| 20260903222158 | 35 | 153 | 3.2 | 3.2 | 0.00 | 0.00 | 0.00 | 50 | 997.2 |
| 20260903222058 | 35 | 148 | 1.6 | 3.2 | 0.00 | 0.00 | 0.00 | 51 | 997.3 |
| 20260903221929 | 35 | 133 | 1.6 | 3.2 | 0.00 | 0.00 | 0.00 | 50 | 997.1 |
| 20260903221828 | 35 | 107 | 1.6 | 3.2 | 0.00 | 0.00 | 0.00 | 52 | 997.2 |
| 20260903221728 | 35 | 145 | 0.0 | 1.6 | 0.00 | 0.00 | 0.00 | 51 | 997.2 |
| 20260903221628 | 35 | 154 | 1.6 | 4.8 | 0.00 | 0.00 | 0.00 | 50 | 997.1 |
| 20260903221459 | 35 | 152 | 3.2 | 4.8 | 0.00 | 0.00 | 0.00 | 53 | 997.3 |
| 20260903221358 | 35 | 119 | 0.0 | 0.0 | 0.00 | 0.00 | 0.00 | 58 | 997.2 |
| 20260903221258 | 35 | 119 | 0.0 | 1.6 | 0.00 | 0.00 | 0.00 | 52 | 997.2 |
| 20260903221158 | 35 | 174 | 3.2 | 3.2 | 0.00 | 0.00 | 0.00 | 52 | 997.3 |
| 20260903221029 | 35 | 172 | 0.0 | 0.0 | 0.00 | 0.00 | 0.00 | 52 | 997.3 |
| 20260903220928 | 35 | 172 | 0.0 | 0.0 | 0.00 | 0.00 | 0.00 | 53 | 997.3 |
| 20260903220828 | 35 | 172 | 1.6 | 1.6 | 0.00 | 0.00 | 0.00 | 52 | 997.2 |
| 20260903220728 | 35 | 171 | 1.6 | 1.6 | 0.00 | 0.00 | 0.00 | 53 | 997.3 |
| 20260903220559 | 35 | 133 | 1.6 | 1.6 | 0.00 | 0.00 | 0.00 | 55 | 997.1 |
| 20260903220429 | 35 | 133 | 0.0 | 0.0 | 0.00 | 0.00 | 0.00 | 53 | 997.2 |
| 20260903220258 | 35 | 132 | 1.6 | 3.2 | 0.00 | 0.00 | 0.00 | 50 | 997.1 |
| 20260903220130 | 35 | 132 | 3.2 | 3.2 | 0.00 | 0.00 | 0.00 | 49 | 997.1 |
| 20260903215958 | 35 | 174 | 3.2 | 4.8 | 0.00 | 0.00 | 0.00 | 51 | 997.2 |
| 20260903215858 | 36 | 173 | 1.6 | 3.2 | 0.00 | 0.00 | 0.00 | 51 | 997.2 |
| 20260903215758 | 36 | 174 | 0.0 | 0.0 | 0.00 | 0.00 | 0.00 | 55 | 997.4 |
| 20260903215629 | 35 | 175 | 0.0 | 0.0 | 0.00 | 0.00 | 0.00 | 54 | 997.2 |
| 20260903215528 | 35 | 174 | 0.0 | 0.0 | 0.00 | 0.00 | 0.00 | 54 | 997.3 |
| 20260903215428 | 35 | 175 | 0.0 | 0.0 | 0.00 | 0.00 | 0.00 | 52 | 997.1 |
| 20260903215328 | 35 | 174 | 0.0 | 0.0 | 0.00 | 0.00 | 0.00 | 54 | 997.3 |
| 20260903215228 | 35 | 175 | 1.6 | 1.6 | 0.00 | 0.00 | 0.00 | 53 | 997.2 |
| 20260903215058 | 35 | 175 | 1.6 | 3.2 | 0.00 | 0.00 | 0.00 | 55 | 997.2 |
| 20260903214958 | 35 | 176 | 0.0 | 0.0 | 0.00 | 0.00 | 0.00 | 51 | 997.2 |
| 20260903214829 | 36 | 140 | 4.8 | 4.8 | 0.00 | 0.00 | 0.00 | 50 | 997.2 |
| 20260903214728 | 36 | 123 | 3.2 | 4.8 | 0.00 | 0.00 | 0.00 | 52 | 997.3 |
| 20260903214628 | 36 | 169 | 3.2 | 4.8 | 0.00 | 0.00 | 0.00 | 50 | 997.3 |
| 20260903214528 | 36 | 186 | 3.2 | 3.2 | 0.00 | 0.00 | 0.00 | 52 | 997.2 |
| 20260903214428 | 36 | 160 | 4.8 | 4.8 | 0.00 | 0.00 | 0.00 | 52 | 997.4 |
| 20260903214328 | 37 | 145 | 1.6 | 3.2 | 0.00 | 0.00 | 0.00 | 53 | 997.4 |
| 20260903214228 | 37 | 156 | 3.2 | 3.2 | 0.00 | 0.00 | 0.00 | 52 | 997.5 |
| 20260903214059 | 37 | 138 | 0.0 | 0.0 | 0.00 | 0.00 | 0.00 | 51 | 997.4 |
| 20260903213959 | 37 | 138 | 0.0 | 0.0 | 0.00 | 0.00 | 0.00 | 52 | 997.4 |
| 20260903213858 | 36 | 138 | 0.0 | 0.0 | 0.00 | 0.00 | 0.00 | 50 | 997.5 |
| 20260903213758 | 36 | 138 | 0.0 | 0.0 | 0.00 | 0.00 | 0.00 | 52 | 997.4 |
| 20260903213658 | 36 | 138 | 0.0 | 0.0 | 0.00 | 0.00 | 0.00 | 54 | 997.6 |
| 20260903213558 | 36 | 138 | 0.0 | 0.0 | 0.00 | 0.00 | 0.00 | 52 | 997.3 |
| 20260903213458 | 36 | 138 | 0.0 | 0.0 | 0.00 | 0.00 | 0.00 | 50 | 997.4 |
| 20260903213358 | 35 | 138 | 0.0 | 0.0 | 0.00 | 0.00 | 0.00 | 53 | 997.5 |
| 20260903213258 | 35 | 138 | 0.0 | 1.6 | 0.00 | 0.00 | 0.00 | 51 | 997.5 |
| 20260903213158 | 35 | 139 | 1.6 | 3.2 | 0.00 | 0.00 | 0.00 | 52 | 997.4 |
| 20260903213029 | 35 | 142 | 3.2 | 4.8 | 0.00 | 0.00 | 0.00 | 52 | 997.4 |
| 20260903212928 | 35 | 120 | 3.2 | 4.8 | 0.00 | 0.00 | 0.00 | 52 | 997.5 |
| 20260903212828 | 35 | 123 | 0.0 | 0.0 | 0.00 | 0.00 | 0.00 | 52 | 997.6 |
| 20260903212659 | 35 | 123 | 0.0 | 0.0 | 0.00 | 0.00 | 0.00 | 52 | 997.5 |
| 20260903212558 | 35 | 123 | 0.0 | 0.0 | 0.00 | 0.00 | 0.00 | 53 | 997.5 |
| 20260903212458 | 35 | 151 | 3.2 | 4.8 | 0.00 | 0.00 | 0.00 | 53 | 997.5 |
| 20260903212358 | 35 | 161 | 0.0 | 1.6 | 0.00 | 0.00 | 0.00 | 54 | 997.5 |
| 20260903212229 | 35 | 122 | 3.2 | 4.8 | 0.00 | 0.00 | 0.00 | 54 | 997.4 |
| 20260903212058 | 35 | 104 | 0.0 | 1.6 | 0.00 | 0.00 | 0.00 | 55 | 997.6 |
| 20260903211958 | 35 | 104 | 0.0 | 1.6 | 0.00 | 0.00 | 0.00 | 55 | 997.4 |
| 20260903211858 | 35 | 128 | 0.0 | 1.6 | 0.00 | 0.00 | 0.00 | 56 | 997.7 |
| 20260903211729 | 35 | 129 | 0.0 | 0.0 | 0.00 | 0.00 | 0.00 | 58 | 997.7 |
| 20260903211628 | 35 | 128 | 0.0 | 0.0 | 0.00 | 0.00 | 0.00 | 54 | 997.5 |
| 20260903211528 | 35 | 129 | 0.0 | 0.0 | 0.00 | 0.00 | 0.00 | 56 | 997.6 |
| 20260903211359 | 35 | 128 | 0.0 | 1.6 | 0.00 | 0.00 | 0.00 | 54 | 997.6 |
| 20260903211258 | 35 | 168 | 0.0 | 0.0 | 0.00 | 0.00 | 0.00 | 55 | 997.6 |
| 20260903211158 | 35 | 168 | 0.0 | 0.0 | 0.00 | 0.00 | 0.00 | 55 | 997.8 |
| 20260903211058 | 35 | 168 | 0.0 | 0.0 | 0.00 | 0.00 | 0.00 | 57 | 997.7 |
| 20260903210958 | 35 | 168 | 0.0 | 0.0 | 0.00 | 0.00 | 0.00 | 55 | 997.8 |
| 20260903210858 | 35 | 168 | 0.0 | 0.0 | 0.00 | 0.00 | 0.00 | 55 | 997.8 |
| 20260903210758 | 35 | 168 | 0.0 | 0.0 | 0.00 | 0.00 | 0.00 | 57 | 998.0 |
| 20260903210629 | 36 | 167 | 0.0 | 0.0 | 0.00 | 0.00 | 0.00 | 53 | 997.8 |
| 20260903210459 | 36 | 168 | 0.0 | 0.0 | 0.00 | 0.00 | 0.00 | 54 | 997.9 |
| 20260903210358 | 36 | 168 | 0.0 | 0.0 | 0.00 | 0.00 | 0.00 | 53 | 997.6 |
| 20260903210258 | 36 | 152 | 3.2 | 4.8 | 0.00 | 0.00 | 0.00 | 53 | 997.8 |
| 20260903210158 | 36 | 244 | 3.2 | 3.2 | 0.00 | 0.00 | 0.00 | 53 | 997.8 |
| 20260903210029 | 36 | 244 | 0.0 | 0.0 | 0.00 | 0.00 | 0.00 | 53 | 997.6 |
| 20260903205928 | 36 | 244 | 0.0 | 0.0 | 0.00 | 0.00 | 0.00 | 51 | 997.6 |
| 20260903205828 | 36 | 244 | 0.0 | 1.6 | 0.00 | 0.00 | 0.00 | 51 | 997.7 |
| 20260903205728 | 36 | 244 | 0.0 | 1.6 | 0.00 | 0.00 | 0.00 | 51 | 998.0 |
| 20260903205559 | 37 | 239 | 4.8 | 6.4 | 0.00 | 0.00 | 0.00 | 49 | 997.8 |
| 20260903205458 | 37 | 239 | 3.2 | 4.8 | 0.00 | 0.00 | 0.00 | 50 | 997.7 |
| 20260903205358 | 37 | 238 | 3.2 | 4.8 | 0.00 | 0.00 | 0.00 | 52 | 997.8 |
| 20260903205258 | 37 | 204 | 0.0 | 1.6 | 0.00 | 0.00 | 0.00 | 51 | 997.9 |
| 20260903205129 | 37 | 219 | 1.6 | 3.2 | 0.00 | 0.00 | 0.00 | 49 | 998.1 |
| 20260903204959 | 37 | 219 | 0.0 | 0.0 | 0.00 | 0.00 | 0.00 | 48 | 997.7 |
| 20260903204858 | 37 | 238 | 0.0 | 1.6 | 0.00 | 0.00 | 0.00 | 54 | 997.8 |
| 20260903204728 | 36 | 238 | 0.0 | 3.2 | 0.00 | 0.00 | 0.00 | 49 | 998.1 |
| 20260903204628 | 36 | 238 | 1.6 | 3.2 | 0.00 | 0.00 | 0.00 | 51 | 998.0 |
| 20260903204528 | 36 | 223 | 0.0 | 1.6 | 0.00 | 0.00 | 0.00 | 54 | 997.8 |
| 20260903204428 | 36 | 223 | 0.0 | 1.6 | 0.00 | 0.00 | 0.00 | 55 | 997.9 |
| 20260903204259 | 36 | 236 | 0.0 | 1.6 | 0.00 | 0.00 | 0.00 | 53 | 997.9 |
| 20260903204159 | 36 | 236 | 1.6 | 3.2 | 0.00 | 0.00 | 0.00 | 52 | 997.7 |
| 20260903204028 | 36 | 229 | 1.6 | 3.2 | 0.00 | 0.00 | 0.00 | 53 | 997.9 |
| 20260903203859 | 36 | 224 | 1.6 | 1.6 | 0.00 | 0.00 | 0.00 | 54 | 998.0 |
| 20260903203758 | 36 | 224 | 0.0 | 1.6 | 0.00 | 0.00 | 0.00 | 53 | 997.8 |
| 20260903203658 | 36 | 224 | 1.6 | 3.2 | 0.00 | 0.00 | 0.00 | 52 | 998.0 |
| 20260903203558 | 36 | 220 | 0.0 | 0.0 | 0.00 | 0.00 | 0.00 | 55 | 998.0 |
| 20260903203428 | 36 | 220 | 0.0 | 0.0 | 0.00 | 0.00 | 0.00 | 54 | 997.9 |
| 20260903203328 | 36 | 220 | 1.6 | 1.6 | 0.00 | 0.00 | 0.00 | 56 | 997.9 |
| 20260903203228 | 36 | 220 | 0.0 | 1.6 | 0.00 | 0.00 | 0.00 | 54 | 997.9 |
| 20260903203128 | 36 | 220 | 1.6 | 1.6 | 0.00 | 0.00 | 0.00 | 53 | 997.9 |
| 20260903202959 | 36 | 220 | 0.0 | 0.0 | 0.00 | 0.00 | 0.00 | 54 | 997.9 |
| 20260903202858 | 36 | 203 | 0.0 | 0.0 | 0.00 | 0.00 | 0.00 | 53 | 998.0 |
| 20260903202758 | 36 | 205 | 3.2 | 4.8 | 0.00 | 0.00 | 0.00 | 51 | 997.9 |
| 20260903202658 | 37 | 163 | 6.4 | 8.0 | 0.00 | 0.00 | 0.00 | 52 | 998.0 |
| 20260903202529 | 37 | 212 | 0.0 | 0.0 | 0.00 | 0.00 | 0.00 | 53 | 998.1 |
| 20260903202428 | 36 | 212 | 0.0 | 0.0 | 0.00 | 0.00 | 0.00 | 55 | 998.2 |
| 20260903202328 | 36 | 212 | 0.0 | 0.0 | 0.00 | 0.00 | 0.00 | 52 | 998.1 |
| 20260903202228 | 36 | 212 | 0.0 | 0.0 | 0.00 | 0.00 | 0.00 | 53 | 998.1 |
| 20260903202059 | 36 | 198 | 0.0 | 0.0 | 0.00 | 0.00 | 0.00 | 55 | 998.0 |
| 20260903201958 | 36 | 209 | 0.0 | 1.6 | 0.00 | 0.00 | 0.00 | 55 | 998.0 |
| 20260903201858 | 36 | 210 | 1.6 | 3.2 | 0.00 | 0.00 | 0.00 | 53 | 998.2 |
| 20260903201758 | 36 | 188 | 6.4 | 6.4 | 0.00 | 0.00 | 0.00 | 52 | 998.0 |
| 20260903201658 | 36 | 168 | 1.6 | 4.8 | 0.00 | 0.00 | 0.00 | 51 | 998.2 |
| 20260903201558 | 36 | 248 | 1.6 | 1.6 | 0.00 | 0.00 | 0.00 | 55 | 998.0 |
| 20260903201428 | 36 | 235 | 0.0 | 0.0 | 0.00 | 0.00 | 0.00 | 53 | 998.1 |
| 20260903201328 | 36 | 241 | 4.8 | 6.4 | 0.00 | 0.00 | 0.00 | 54 | 998.1 |
| 20260903201159 | 36 | 212 | 0.0 | 1.6 | 0.00 | 0.00 | 0.00 | 54 | 998.2 |
| 20260903201058 | 36 | 213 | 3.2 | 4.8 | 0.00 | 0.00 | 0.00 | 53 | 998.2 |
| 20260903200958 | 36 | 212 | 1.6 | 3.2 | 0.00 | 0.00 | 0.00 | 55 | 998.2 |
| 20260903200858 | 36 | 202 | 0.0 | 1.6 | 0.00 | 0.00 | 0.00 | 58 | 998.4 |
| 20260903200758 | 35 | 201 | 0.0 | 1.6 | 0.00 | 0.00 | 0.00 | 58 | 998.5 |
| 20260903200658 | 35 | 167 | 0.0 | 0.0 | 0.00 | 0.00 | 0.00 | 56 | 998.2 |
| 20260903200529 | 35 | 202 | 0.0 | 0.0 | 0.00 | 0.00 | 0.00 | 57 | 998.2 |
| 20260903200428 | 35 | 202 | 0.0 | 1.6 | 0.00 | 0.00 | 0.00 | 54 | 998.4 |
| 20260903200328 | 36 | 206 | 0.0 | 1.6 | 0.00 | 0.00 | 0.00 | 54 | 998.2 |
| 20260903200228 | 36 | 206 | 0.0 | 0.0 | 0.00 | 0.00 | 0.00 | 55 | 998.3 |
| 20260903200128 | 35 | 207 | 0.0 | 0.0 | 0.00 | 0.00 | 0.00 | 54 | 998.2 |
| 20260903200028 | 35 | 206 | 0.0 | 1.6 | 0.00 | 0.00 | 0.00 | 57 | 998.2 |
| 20260903195859 | 35 | 216 | 0.0 | 0.0 | 0.00 | 0.00 | 0.00 | 57 | 998.2 |
| 20260903195758 | 35 | 216 | 0.0 | 1.6 | 0.00 | 0.00 | 0.00 | 56 | 998.3 |
| 20260903195629 | 35 | 216 | 0.0 | 1.6 | 0.00 | 0.00 | 0.00 | 56 | 998.3 |
| 20260903195528 | 35 | 122 | 0.0 | 0.0 | 0.00 | 0.00 | 0.00 | 55 | 998.4 |
| 20260903195359 | 35 | 122 | 0.0 | 1.6 | 0.00 | 0.00 | 0.00 | 55 | 998.2 |
| 20260903195258 | 35 | 212 | 0.0 | 1.6 | 0.00 | 0.00 | 0.00 | 54 | 998.2 |
| 20260903195158 | 36 | 201 | 1.6 | 3.2 | 0.00 | 0.00 | 0.00 | 53 | 998.4 |
| 20260903195058 | 36 | 218 | 0.0 | 3.2 | 0.00 | 0.00 | 0.00 | 53 | 998.3 |
| 20260903194958 | 36 | 259 | 1.6 | 1.6 | 0.00 | 0.00 | 0.00 | 53 | 998.6 |
| 20260903194858 | 36 | 259 | 0.0 | 0.0 | 0.00 | 0.00 | 0.00 | 53 | 998.4 |
| 20260903194758 | 36 | 258 | 3.2 | 4.8 | 0.00 | 0.00 | 0.00 | 52 | 998.5 |
| 20260903194658 | 36 | 271 | 1.6 | 3.2 | 0.00 | 0.00 | 0.00 | 51 | 998.3 |
| 20260903194529 | 36 | 189 | 1.6 | 3.2 | 0.00 | 0.00 | 0.00 | 52 | 998.5 |
| 20260903194428 | 36 | 183 | 1.6 | 4.8 | 0.00 | 0.00 | 0.00 | 52 | 998.6 |
| 20260903194328 | 36 | 171 | 1.6 | 4.8 | 0.00 | 0.00 | 0.00 | 53 | 998.4 |
| 20260903194228 | 36 | 237 | 3.2 | 4.8 | 0.00 | 0.00 | 0.00 | 51 | 998.3 |
| 20260903194059 | 36 | 156 | 1.6 | 4.8 | 0.00 | 0.00 | 0.00 | 52 | 998.5 |
| 20260903193958 | 36 | 225 | 1.6 | 3.2 | 0.00 | 0.00 | 0.00 | 54 | 998.4 |
| 20260903193858 | 36 | 225 | 3.2 | 4.8 | 0.00 | 0.00 | 0.00 | 55 | 998.4 |
| 20260903193758 | 36 | 197 | 3.2 | 3.2 | 0.00 | 0.00 | 0.00 | 55 | 998.5 |
| 20260903193658 | 36 | 225 | 1.6 | 3.2 | 0.00 | 0.00 | 0.00 | 50 | 998.6 |
| 20260903193558 | 36 | 157 | 6.4 | 9.7 | 0.00 | 0.00 | 0.00 | 52 | 998.5 |
| 20260903193458 | 36 | 228 | 0.0 | 0.0 | 0.00 | 0.00 | 0.00 | 55 | 998.5 |
| 20260903193358 | 36 | 227 | 0.0 | 1.6 | 0.00 | 0.00 | 0.00 | 53 | 998.6 |
| 20260903193230 | 36 | 223 | 0.0 | 0.0 | 0.00 | 0.00 | 0.00 | 53 | 998.5 |
| 20260903193128 | 36 | 223 | 3.2 | 4.8 | 0.00 | 0.00 | 0.00 | 54 | 998.6 |
| 20260903193028 | 36 | 209 | 0.0 | 1.6 | 0.00 | 0.00 | 0.00 | 56 | 998.5 |
| 20260903192928 | 36 | 242 | 0.0 | 3.2 | 0.00 | 0.00 | 0.00 | 52 | 998.5 |
| 20260903192759 | 35 | 141 | 3.2 | 4.8 | 0.00 | 0.00 | 0.00 | 53 | 998.7 |
| 20260903192658 | 35 | 199 | 1.6 | 3.2 | 0.00 | 0.00 | 0.00 | 56 | 998.5 |
| 20260903192558 | 35 | 155 | 0.0 | 1.6 | 0.00 | 0.00 | 0.00 | 55 | 998.6 |
| 20260903192458 | 35 | 154 | 3.2 | 3.2 | 0.00 | 0.00 | 0.00 | 53 | 998.7 |
| 20260903192358 | 35 | 175 | 1.6 | 3.2 | 0.00 | 0.00 | 0.00 | 53 | 998.7 |
| 20260903192229 | 35 | 130 | 1.6 | 3.2 | 0.00 | 0.00 | 0.00 | 53 | 998.7 |
| 20260903192128 | 35 | 130 | 1.6 | 3.2 | 0.00 | 0.00 | 0.00 | 53 | 998.6 |
| 20260903192028 | 35 | 176 | 1.6 | 3.2 | 0.00 | 0.00 | 0.00 | 55 | 998.7 |
| 20260903191859 | 35 | 146 | 0.0 | 0.0 | 0.00 | 0.00 | 0.00 | 56 | 998.7 |
| 20260903191758 | 35 | 145 | 0.0 | 1.6 | 0.00 | 0.00 | 0.00 | 54 | 998.6 |
| 20260903191658 | 35 | 146 | 1.6 | 1.6 | 0.00 | 0.00 | 0.00 | 53 | 998.7 |
| 20260903191558 | 35 | 146 | 1.6 | 1.6 | 0.00 | 0.00 | 0.00 | 54 | 998.5 |
| 20260903191458 | 35 | 146 | 0.0 | 1.6 | 0.00 | 0.00 | 0.00 | 53 | 998.6 |
| 20260903191358 | 35 | 146 | 1.6 | 3.2 | 0.00 | 0.00 | 0.00 | 52 | 998.6 |
| 20260903191258 | 35 | 147 | 1.6 | 1.6 | 0.00 | 0.00 | 0.00 | 55 | 998.6 |
| 20260903191129 | 35 | 147 | 1.6 | 1.6 | 0.00 | 0.00 | 0.00 | 53 | 998.7 |
| 20260903190959 | 35 | 148 | 3.2 | 3.2 | 0.00 | 0.00 | 0.00 | 51 | 998.7 |
| 20260903190858 | 35 | 169 | 3.2 | 3.2 | 0.00 | 0.00 | 0.00 | 52 | 998.6 |
| 20260903190758 | 35 | 171 | 3.2 | 3.2 | 0.00 | 0.00 | 0.00 | 54 | 998.9 |
| 20260903190658 | 35 | 123 | 0.0 | 1.6 | 0.00 | 0.00 | 0.00 | 52 | 998.7 |
| 20260903190529 | 35 | 122 | 0.0 | 1.6 | 0.00 | 0.00 | 0.00 | 51 | 998.7 |
| 20260903190428 | 35 | 123 | 1.6 | 3.2 | 0.00 | 0.00 | 0.00 | 54 | 998.8 |
| 20260903190328 | 35 | 122 | 1.6 | 3.2 | 0.00 | 0.00 | 0.00 | 51 | 998.8 |
| 20260903190228 | 35 | 124 | 3.2 | 4.8 | 0.00 | 0.00 | 0.00 | 52 | 998.8 |
| 20260903190100 | 35 | 126 | 3.2 | 4.8 | 0.00 | 0.00 | 0.00 | 52 | 998.6 |
| 20260903185958 | 35 | 131 | 0.0 | 0.0 | 0.00 | 0.00 | 0.00 | 51 | 998.7 |
| 20260903185858 | 35 | 131 | 0.0 | 0.0 | 0.00 | 0.00 | 0.00 | 53 | 998.8 |
| 20260903185758 | 35 | 131 | 0.0 | 1.6 | 0.00 | 0.00 | 0.00 | 51 | 998.8 |
| 20260903185629 | 36 | 148 | 3.2 | 3.2 | 0.00 | 0.00 | 0.00 | 55 | 998.8 |
| 20260903185528 | 36 | 134 | 0.0 | 1.6 | 0.00 | 0.00 | 0.00 | 51 | 999.0 |
| 20260903185428 | 36 | 152 | 3.2 | 4.8 | 0.00 | 0.00 | 0.00 | 49 | 998.9 |
| 20260903185328 | 36 | 116 | 4.8 | 4.8 | 0.00 | 0.00 | 0.00 | 49 | 998.8 |
| 20260903185159 | 37 | 157 | 3.2 | 4.8 | 0.00 | 0.00 | 0.00 | 52 | 998.9 |
| 20260903185058 | 37 | 218 | 3.2 | 4.8 | 0.00 | 0.00 | 0.00 | 48 | 998.8 |
| 20260903184958 | 36 | 218 | 0.0 | 0.0 | 0.00 | 0.00 | 0.00 | 54 | 999.2 |
| 20260903184858 | 36 | 218 | 1.6 | 3.2 | 0.00 | 0.00 | 0.00 | 51 | 999.1 |
| 20260903184758 | 36 | 218 | 0.0 | 0.0 | 0.00 | 0.00 | 0.00 | 53 | 998.8 |
| 20260903184658 | 36 | 218 | 0.0 | 1.6 | 0.00 | 0.00 | 0.00 | 49 | 999.2 |
| 20260903184529 | 36 | 218 | 1.6 | 3.2 | 0.00 | 0.00 | 0.00 | 53 | 999.2 |
| 20260903184428 | 36 | 218 | 1.6 | 3.2 | 0.00 | 0.00 | 0.00 | 49 | 999.1 |
| 20260903184328 | 36 | 218 | 3.2 | 4.8 | 0.00 | 0.00 | 0.00 | 48 | 999.2 |
| 20260903184228 | 36 | 218 | 1.6 | 4.8 | 0.00 | 0.00 | 0.00 | 50 | 998.9 |
| 20260903184128 | 36 | 218 | 1.6 | 3.2 | 0.00 | 0.00 | 0.00 | 49 | 999.2 |
| 20260903183959 | 36 | 218 | 3.2 | 3.2 | 0.00 | 0.00 | 0.00 | 49 | 999.1 |
| 20260903183858 | 36 | 218 | 0.0 | 1.6 | 0.00 | 0.00 | 0.00 | 52 | 999.2 |
| 20260903183758 | 36 | 218 | 0.0 | 0.0 | 0.00 | 0.00 | 0.00 | 50 | 999.1 |
| 20260903183658 | 36 | 218 | 0.0 | 1.6 | 0.00 | 0.00 | 0.00 | 49 | 999.2 |
| 20260903183558 | 36 | 217 | 3.2 | 3.2 | 0.00 | 0.00 | 0.00 | 49 | 999.2 |
| 20260903183428 | 37 | 218 | 0.0 | 1.6 | 0.00 | 0.00 | 0.00 | 50 | 999.2 |
| 20260903183328 | 37 | 218 | 0.0 | 1.6 | 0.00 | 0.00 | 0.00 | 50 | 999.1 |
| 20260903183228 | 37 | 217 | 1.6 | 4.8 | 0.00 | 0.00 | 0.00 | 49 | 999.1 |
| 20260903183128 | 37 | 218 | 1.6 | 4.8 | 0.00 | 0.00 | 0.00 | 51 | 999.2 |
| 20260903182959 | 37 | 218 | 0.0 | 1.6 | 0.00 | 0.00 | 0.00 | 55 | 999.2 |
| 20260903182858 | 37 | 217 | 1.6 | 3.2 | 0.00 | 0.00 | 0.00 | 49 | 999.0 |
| 20260903182758 | 37 | 133 | 0.0 | 1.6 | 0.00 | 0.00 | 0.00 | 50 | 999.2 |
| 20260903182658 | 37 | 133 | 0.0 | 1.6 | 0.00 | 0.00 | 0.00 | 52 | 999.1 |
| 20260903182558 | 37 | 190 | 0.0 | 0.0 | 0.00 | 0.00 | 0.00 | 47 | 999.0 |
| 20260903182458 | 37 | 189 | 0.0 | 0.0 | 0.00 | 0.00 | 0.00 | 53 | 999.1 |
| 20260903182358 | 37 | 190 | 0.0 | 1.6 | 0.00 | 0.00 | 0.00 | 49 | 999.3 |
| 20260903182258 | 37 | 211 | 3.2 | 4.8 | 0.00 | 0.00 | 0.00 | 50 | 999.1 |
| 20260903182158 | 37 | 233 | 0.0 | 0.0 | 0.00 | 0.00 | 0.00 | 50 | 999.3 |
| 20260903182058 | 37 | 232 | 3.2 | 3.2 | 0.00 | 0.00 | 0.00 | 50 | 999.1 |
| 20260903181929 | 37 | 233 | 0.0 | 1.6 | 0.00 | 0.00 | 0.00 | 48 | 999.3 |
| 20260903181828 | 36 | 233 | 0.0 | 0.0 | 0.00 | 0.00 | 0.00 | 45 | 998.9 |
| 20260903181728 | 37 | 232 | 1.6 | 1.6 | 0.00 | 0.00 | 0.00 | 46 | 999.4 |
| 20260903181628 | 37 | 233 | 0.0 | 1.6 | 0.00 | 0.00 | 0.00 | 46 | 999.3 |
| 20260903181528 | 37 | 233 | 0.0 | 0.0 | 0.00 | 0.00 | 0.00 | 45 | 999.3 |
| 20260903181359 | 36 | 233 | 0.0 | 0.0 | 0.00 | 0.00 | 0.00 | 45 | 999.1 |
| 20260903181258 | 36 | 233 | 0.0 | 0.0 | 0.00 | 0.00 | 0.00 | 45 | 999.5 |
| 20260903181158 | 36 | 233 | 1.6 | 3.2 | 0.00 | 0.00 | 0.00 | 47 | 999.4 |
| 20260903181058 | 36 | 233 | 0.0 | 0.0 | 0.00 | 0.00 | 0.00 | 46 | 999.4 |
| 20260903180929 | 36 | 233 | 0.0 | 3.2 | 0.00 | 0.00 | 0.00 | 48 | 999.4 |
| 20260903180759 | 36 | 233 | 3.2 | 4.8 | 0.00 | 0.00 | 0.00 | 48 | 999.6 |
| 20260903180658 | 37 | 227 | 1.6 | 3.2 | 0.00 | 0.00 | 0.00 | 46 | 999.4 |
| 20260903180558 | 36 | 226 | 0.0 | 1.6 | 0.00 | 0.00 | 0.00 | 52 | 999.4 |
| 20260903180458 | 36 | 226 | 0.0 | 1.6 | 0.00 | 0.00 | 0.00 | 46 | 999.3 |
| 20260903180330 | 36 | 204 | 0.0 | 0.0 | 0.00 | 0.00 | 0.00 | 48 | 999.4 |
| 20260903180228 | 36 | 198 | 0.0 | 0.0 | 0.00 | 0.00 | 0.00 | 50 | 999.4 |
| 20260903180128 | 36 | 197 | 0.0 | 1.6 | 0.00 | 0.00 | 0.00 | 49 | 999.5 |
| 20260903180029 | 36 | 198 | 0.0 | 1.6 | 0.00 | 0.00 | 0.00 | 49 | 999.4 |
| 20260903175928 | 36 | 198 | 0.0 | 1.6 | 0.00 | 0.00 | 0.00 | 49 | 999.4 |
| 20260903175828 | 36 | 184 | 3.2 | 4.8 | 0.00 | 0.00 | 0.00 | 51 | 999.4 |
| 20260903175658 | 36 | 148 | 6.4 | 9.7 | 0.00 | 0.00 | 0.00 | 53 | 999.6 |
| 20260903175558 | 36 | 123 | 0.0 | 1.6 | 0.00 | 0.00 | 0.00 | 53 | 999.5 |
| 20260903175429 | 35 | 122 | 0.0 | 0.0 | 0.00 | 0.00 | 0.00 | 51 | 999.5 |
| 20260903175328 | 36 | 122 | 1.6 | 3.2 | 0.00 | 0.00 | 0.00 | 56 | 999.6 |
| 20260903175228 | 36 | 135 | 3.2 | 4.8 | 0.00 | 0.00 | 0.00 | 53 | 999.5 |
| 20260903175128 | 35 | 250 | 3.2 | 3.2 | 0.00 | 0.00 | 0.00 | 54 | 999.6 |
| 20260903174959 | 35 | 253 | 1.6 | 4.8 | 0.00 | 0.00 | 0.00 | 51 | 999.5 |
| 20260903174858 | 36 | 253 | 4.8 | 6.4 | 0.00 | 0.00 | 0.00 | 51 | 999.3 |
| 20260903174729 | 36 | 231 | 3.2 | 4.8 | 0.00 | 0.00 | 0.00 | 50 | 999.6 |
| 20260903174559 | 36 | 203 | 3.2 | 4.8 | 0.00 | 0.00 | 0.00 | 52 | 999.6 |
| 20260903174428 | 36 | 213 | 3.2 | 4.8 | 0.00 | 0.00 | 0.00 | 53 | 999.6 |
| 20260903174328 | 36 | 180 | 4.8 | 6.4 | 0.00 | 0.00 | 0.00 | 50 | 999.5 |
| 20260903174228 | 36 | 255 | 0.0 | 0.0 | 0.00 | 0.00 | 0.00 | 54 | 999.5 |
| 20260903174128 | 36 | 255 | 0.0 | 3.2 | 0.00 | 0.00 | 0.00 | 53 | 999.8 |
| 20260903174028 | 35 | 255 | 3.2 | 4.8 | 0.00 | 0.00 | 0.00 | 49 | 999.6 |
| 20260903173928 | 35 | 255 | 0.0 | 0.0 | 0.00 | 0.00 | 0.00 | 58 | 999.5 |
| 20260903173828 | 35 | 255 | 0.0 | 3.2 | 0.00 | 0.00 | 0.00 | 57 | 999.6 |
| 20260903173658 | 35 | 255 | 0.0 | 1.6 | 0.00 | 0.00 | 0.00 | 53 | 999.6 |
| 20260903173529 | 35 | 255 | 0.0 | 1.6 | 0.00 | 0.00 | 0.00 | 53 | 999.7 |
| 20260903173429 | 35 | 255 | 0.0 | 3.2 | 0.00 | 0.00 | 0.00 | 53 | 999.6 |
| 20260903173328 | 35 | 255 | 0.0 | 0.0 | 0.00 | 0.00 | 0.00 | 55 | 999.6 |
| 20260903173159 | 35 | 255 | 1.6 | 3.2 | 0.00 | 0.00 | 0.00 | 53 | 999.9 |
| 20260903173058 | 35 | 255 | 3.2 | 4.8 | 0.00 | 0.00 | 0.00 | 54 | 999.7 |
| 20260903172958 | 35 | 255 | 4.8 | 6.4 | 0.00 | 0.00 | 0.00 | 53 | 999.7 |
| 20260903172758 | 35 | 255 | 6.4 | 8.0 | 0.00 | 0.00 | 0.00 | 52 | 999.6 |
| 20260903172628 | 36 | 255 | 4.8 | 4.8 | 0.00 | 0.00 | 0.00 | 52 | 999.9 |
| 20260903172528 | 36 | 255 | 0.0 | 0.0 | 0.00 | 0.00 | 0.00 | 51 | 999.7 |
| 20260903172428 | 36 | 255 | 0.0 | 0.0 | 0.00 | 0.00 | 0.00 | 50 | 999.7 |
| 20260903172328 | 35 | 255 | 1.6 | 3.2 | 0.00 | 0.00 | 0.00 | 51 | 999.6 |
| 20260903172228 | 35 | 255 | 3.2 | 3.2 | 0.00 | 0.00 | 0.00 | 50 | 999.9 |
| 20260903172128 | 35 | 255 | 0.0 | 3.2 | 0.00 | 0.00 | 0.00 | 52 | 999.7 |
| 20260903171959 | 35 | 255 | 1.6 | 3.2 | 0.00 | 0.00 | 0.00 | 53 | 999.7 |
| 20260903171829 | 35 | 255 | 0.0 | 0.0 | 0.00 | 0.00 | 0.00 | 54 | 999.8 |
| 20260903171729 | 35 | 255 | 0.0 | 1.6 | 0.00 | 0.00 | 0.00 | 52 | 999.9 |
| 20260903171559 | 35 | 255 | 1.6 | 3.2 | 0.00 | 0.00 | 0.00 | 52 | 999.8 |
| 20260903171429 | 36 | 254 | 1.6 | 3.2 | 0.00 | 0.00 | 0.00 | 51 | 1000.0 |
| 20260903171328 | 36 | 254 | 0.0 | 3.2 | 0.00 | 0.00 | 0.00 | 53 | 999.9 |
| 20260903171228 | 36 | 254 | 0.0 | 3.2 | 0.00 | 0.00 | 0.00 | 51 | 999.8 |
| 20260903171128 | 36 | 254 | 3.2 | 4.8 | 0.00 | 0.00 | 0.00 | 53 | 999.9 |
| 20260903171028 | 36 | 254 | 3.2 | 4.8 | 0.00 | 0.00 | 0.00 | 53 | 999.8 |
| 20260903170858 | 36 | 254 | 1.6 | 3.2 | 0.00 | 0.00 | 0.00 | 51 | 999.9 |
| 20260903170758 | 36 | 254 | 1.6 | 3.2 | 0.00 | 0.00 | 0.00 | 55 | 999.9 |
| 20260903170658 | 36 | 254 | 0.0 | 0.0 | 0.00 | 0.00 | 0.00 | 55 | 999.9 |
| 20260903170528 | 36 | 254 | 0.0 | 0.0 | 0.00 | 0.00 | 0.00 | 56 | 999.9 |
| 20260903170359 | 36 | 254 | 0.0 | 0.0 | 0.00 | 0.00 | 0.00 | 51 | 999.9 |
| 20260903170258 | 36 | 254 | 0.0 | 0.0 | 0.00 | 0.00 | 0.00 | 51 | 999.9 |
| 20260903170158 | 36 | 254 | 0.0 | 0.0 | 0.00 | 0.00 | 0.00 | 51 | 999.9 |
| 20260903170058 | 36 | 254 | 1.6 | 1.6 | 0.00 | 0.00 | 0.00 | 50 | 999.7 |
| 20260903165958 | 36 | 254 | 1.6 | 1.6 | 0.00 | 0.00 | 0.00 | 52 | 999.8 |
| 20260903165829 | 36 | 254 | 0.0 | 1.6 | 0.00 | 0.00 | 0.00 | 56 | 999.8 |
| 20260903165728 | 35 | 254 | 0.0 | 0.0 | 0.00 | 0.00 | 0.00 | 58 | 1000.2 |
| 20260903165559 | 35 | 254 | 0.0 | 0.0 | 0.00 | 0.00 | 0.00 | 57 | 1000.2 |
| 20260903165428 | 35 | 254 | 0.0 | 1.6 | 0.00 | 0.00 | 0.00 | 56 | 1000.0 |
| 20260903165259 | 35 | 254 | 0.0 | 3.2 | 0.00 | 0.00 | 0.00 | 55 | 999.9 |
| 20260903165129 | 35 | 254 | 0.0 | 0.0 | 0.00 | 0.00 | 0.00 | 55 | 1000.1 |
| 20260903165028 | 35 | 254 | 1.6 | 3.2 | 0.00 | 0.00 | 0.00 | 55 | 1000.1 |
| 20260903164928 | 35 | 254 | 3.2 | 4.8 | 0.00 | 0.00 | 0.00 | 55 | 1000.1 |
| 20260903164828 | 35 | 254 | 3.2 | 6.4 | 0.00 | 0.00 | 0.00 | 54 | 1000.1 |
| 20260903164700 | 35 | 254 | 0.0 | 1.6 | 0.00 | 0.00 | 0.00 | 57 | 1000.1 |
| 20260903164558 | 35 | 254 | 0.0 | 1.6 | 0.00 | 0.00 | 0.00 | 57 | 1000.0 |
| 20260903164458 | 35 | 254 | 1.6 | 3.2 | 0.00 | 0.00 | 0.00 | 55 | 1000.1 |
| 20260903164358 | 35 | 254 | 3.2 | 3.2 | 0.00 | 0.00 | 0.00 | 54 | 1000.2 |
| 20260903164258 | 35 | 254 | 0.0 | 0.0 | 0.00 | 0.00 | 0.00 | 56 | 1000.2 |
| 20260903164158 | 35 | 254 | 0.0 | 3.2 | 0.00 | 0.00 | 0.00 | 55 | 1000.0 |
| 20260903164058 | 35 | 254 | 0.0 | 0.0 | 0.00 | 0.00 | 0.00 | 54 | 1000.2 |
| 20260903163958 | 35 | 254 | 3.2 | 4.8 | 0.00 | 0.00 | 0.00 | 56 | 1000.1 |
| 20260903163829 | 35 | 254 | 1.6 | 1.6 | 0.00 | 0.00 | 0.00 | 54 | 1000.1 |
| 20260903163728 | 35 | 254 | 1.6 | 3.2 | 0.00 | 0.00 | 0.00 | 54 | 1000.3 |
| 20260903163628 | 35 | 254 | 3.2 | 4.8 | 0.00 | 0.00 | 0.00 | 54 | 1000.4 |
| 20260903163528 | 35 | 254 | 0.0 | 1.6 | 0.00 | 0.00 | 0.00 | 54 | 1000.2 |
| 20260903163428 | 35 | 254 | 0.0 | 0.0 | 0.00 | 0.00 | 0.00 | 54 | 1000.1 |
| 20260903163328 | 35 | 254 | 0.0 | 0.0 | 0.00 | 0.00 | 0.00 | 54 | 1000.2 |
| 20260903163159 | 36 | 254 | 4.8 | 6.4 | 0.00 | 0.00 | 0.00 | 54 | 1000.2 |
| 20260903163058 | 36 | 224 | 0.0 | 1.6 | 0.00 | 0.00 | 0.00 | 54 | 1000.4 |
| 20260903162958 | 36 | 224 | 0.0 | 0.0 | 0.00 | 0.00 | 0.00 | 59 | 1000.3 |
| 20260903162858 | 36 | 223 | 1.6 | 4.8 | 0.00 | 0.00 | 0.00 | 56 | 1000.4 |
| 20260903162758 | 35 | 225 | 0.0 | 0.0 | 0.00 | 0.00 | 0.00 | 55 | 1000.3 |
| 20260903162629 | 35 | 225 | 1.6 | 3.2 | 0.00 | 0.00 | 0.00 | 54 | 1000.3 |
| 20260903162459 | 36 | 225 | 1.6 | 3.2 | 0.00 | 0.00 | 0.00 | 53 | 1000.5 |
| 20260903162329 | 36 | 211 | 0.0 | 0.0 | 0.00 | 0.00 | 0.00 | 55 | 1000.4 |
| 20260903162158 | 35 | 212 | 0.0 | 1.6 | 0.00 | 0.00 | 0.00 | 52 | 1000.4 |
| 20260903162029 | 35 | 213 | 1.6 | 3.2 | 0.00 | 0.00 | 0.00 | 53 | 1000.4 |
| 20260903161928 | 35 | 177 | 3.2 | 6.4 | 0.00 | 0.00 | 0.00 | 54 | 1000.4 |
| 20260903161828 | 35 | 204 | 0.0 | 0.0 | 0.00 | 0.00 | 0.00 | 60 | 1000.3 |
| 20260903161728 | 35 | 203 | 0.0 | 1.6 | 0.00 | 0.00 | 0.00 | 58 | 1000.3 |
| 20260903161600 | 35 | 153 | 3.2 | 6.4 | 0.00 | 0.00 | 0.00 | 54 | 1000.6 |
| 20260903161428 | 35 | 127 | 0.0 | 4.8 | 0.00 | 0.00 | 0.00 | 55 | 1000.3 |
| 20260903161328 | 35 | 231 | 0.0 | 0.0 | 0.00 | 0.00 | 0.00 | 56 | 1000.2 |
| 20260903161158 | 35 | 231 | 0.0 | 1.6 | 0.00 | 0.00 | 0.00 | 57 | 1000.3 |
| 20260903161029 | 35 | 231 | 0.0 | 0.0 | 0.00 | 0.00 | 0.00 | 55 | 1000.4 |
| 20260903160928 | 35 | 204 | 1.6 | 3.2 | 0.00 | 0.00 | 0.00 | 53 | 1000.3 |
| 20260903160828 | 35 | 236 | 0.0 | 1.6 | 0.00 | 0.00 | 0.00 | 56 | 1000.4 |
| 20260903160659 | 35 | 216 | 0.0 | 0.0 | 0.00 | 0.00 | 0.00 | 57 | 1000.4 |
| 20260903160558 | 34 | 216 | 0.0 | 1.6 | 0.00 | 0.00 | 0.00 | 61 | 1000.4 |
| 20260903160459 | 34 | 241 | 0.0 | 3.2 | 0.00 | 0.00 | 0.00 | 57 | 1000.3 |
| 20260903160358 | 34 | 241 | 0.0 | 1.6 | 0.00 | 0.00 | 0.00 | 60 | 1000.3 |
| 20260903160230 | 34 | 241 | 1.6 | 3.2 | 0.00 | 0.00 | 0.00 | 59 | 1000.4 |
| 20260903160128 | 34 | 241 | 1.6 | 1.6 | 0.00 | 0.00 | 0.00 | 57 | 1000.3 |
| 20260903160028 | 34 | 241 | 0.0 | 1.6 | 0.00 | 0.00 | 0.00 | 60 | 1000.1 |
| 20260903155928 | 35 | 241 | 4.8 | 6.4 | 0.00 | 0.00 | 0.00 | 57 | 1000.3 |
| 20260903155759 | 34 | 231 | 0.0 | 0.0 | 0.00 | 0.00 | 0.00 | 58 | 1000.2 |
| 20260903155659 | 34 | 232 | 3.2 | 3.2 | 0.00 | 0.00 | 0.00 | 60 | 1000.3 |
| 20260903155601 | 34 | 232 | 1.6 | 3.2 | 0.00 | 0.00 | 0.00 | 58 | 1000.2 |
| 20260903155458 | 34 | 232 | 3.2 | 3.2 | 0.00 | 0.00 | 0.00 | 61 | 1000.6 |
| 20260903155332 | 34 | 232 | 1.6 | 3.2 | 0.00 | 0.00 | 0.00 | 58 | 1000.3 |
| 20260903155159 | 34 | 233 | 3.2 | 3.2 | 0.00 | 0.00 | 0.00 | 58 | 1000.5 |
| 20260903155028 | 34 | 233 | 3.2 | 4.8 | 0.00 | 0.00 | 0.00 | 58 | 1000.4 |
| 20260903154928 | 34 | 224 | 0.0 | 0.0 | 0.00 | 0.00 | 0.00 | 60 | 1000.6 |
| 20260903154828 | 34 | 208 | 3.2 | 4.8 | 0.00 | 0.00 | 0.00 | 60 | 1000.4 |
| 20260903154728 | 34 | 207 | 3.2 | 4.8 | 0.00 | 0.00 | 0.00 | 59 | 1000.4 |
| 20260903154559 | 33 | 243 | 0.0 | 1.6 | 0.00 | 0.00 | 0.00 | 60 | 1000.3 |
| 20260903154458 | 33 | 243 | 1.6 | 4.8 | 0.00 | 0.00 | 0.00 | 59 | 1000.5 |
| 20260903154358 | 33 | 245 | 0.0 | 1.6 | 0.00 | 0.00 | 0.00 | 61 | 1000.5 |
| 20260903154258 | 33 | 245 | 1.6 | 3.2 | 0.00 | 0.00 | 0.00 | 60 | 1000.4 |
| 20260903154129 | 33 | 245 | 1.6 | 3.2 | 0.00 | 0.00 | 0.00 | 61 | 1000.3 |
| 20260903153959 | 33 | 245 | 0.0 | 1.6 | 0.00 | 0.00 | 0.00 | 62 | 1000.4 |
| 20260903153858 | 33 | 245 | 3.2 | 4.8 | 0.00 | 0.00 | 0.00 | 60 | 1000.5 |
| 20260903153758 | 33 | 245 | 1.6 | 3.2 | 0.00 | 0.00 | 0.00 | 62 | 1000.4 |
| 20260903153658 | 33 | 225 | 3.2 | 3.2 | 0.00 | 0.00 | 0.00 | 60 | 1000.4 |
| 20260903153558 | 33 | 225 | 1.6 | 3.2 | 0.00 | 0.00 | 0.00 | 61 | 1000.4 |
| 20260903153458 | 33 | 225 | 3.2 | 4.8 | 0.00 | 0.00 | 0.00 | 59 | 1000.5 |
| 20260903153358 | 33 | 224 | 0.0 | 1.6 | 0.00 | 0.00 | 0.00 | 62 | 1000.5 |
| 20260903153229 | 34 | 218 | 1.6 | 3.2 | 0.00 | 0.00 | 0.00 | 61 | 1000.6 |
| 20260903153129 | 34 | 217 | 0.0 | 0.0 | 0.00 | 0.00 | 0.00 | 62 | 1000.5 |
| 20260903153029 | 34 | 217 | 1.6 | 3.2 | 0.00 | 0.00 | 0.00 | 61 | 1000.7 |
| 20260903152929 | 34 | 217 | 0.0 | 1.6 | 0.00 | 0.00 | 0.00 | 61 | 1000.4 |
| 20260903152829 | 34 | 217 | 0.0 | 0.0 | 0.00 | 0.00 | 0.00 | 59 | 1000.5 |
| 20260903152728 | 34 | 217 | 3.2 | 3.2 | 0.00 | 0.00 | 0.00 | 58 | 1000.5 |
| 20260903152558 | 34 | 217 | 1.6 | 3.2 | 0.00 | 0.00 | 0.00 | 64 | 1000.5 |
| 20260903152458 | 34 | 173 | 6.4 | 8.0 | 0.00 | 0.00 | 0.00 | 59 | 1000.6 |
| 20260903152358 | 34 | 226 | 0.0 | 0.0 | 0.00 | 0.00 | 0.00 | 63 | 1000.5 |
| 20260903152258 | 33 | 226 | 0.0 | 0.0 | 0.00 | 0.00 | 0.00 | 65 | 1000.6 |
| 20260903152158 | 33 | 226 | 1.6 | 1.6 | 0.00 | 0.00 | 0.00 | 63 | 1000.4 |
| 20260903152032 | 33 | 220 | 3.2 | 4.8 | 0.00 | 0.00 | 0.00 | 67 | 1000.5 |
| 20260903151928 | 33 | 230 | 1.6 | 3.2 | 0.00 | 0.00 | 0.00 | 62 | 1000.6 |
| 20260903151800 | 33 | 216 | 0.0 | 0.0 | 0.00 | 0.00 | 0.00 | 65 | 1000.5 |
| 20260903151658 | 33 | 154 | 1.6 | 1.6 | 0.00 | 0.00 | 0.00 | 63 | 1000.6 |
| 20260903151558 | 33 | 138 | 4.8 | 4.8 | 0.00 | 0.00 | 0.00 | 62 | 1000.6 |
| 20260903151458 | 33 | 193 | 3.2 | 4.8 | 0.00 | 0.00 | 0.00 | 62 | 1000.5 |
| 20260903151329 | 33 | 218 | 0.0 | 0.0 | 0.00 | 0.00 | 0.00 | 63 | 1000.3 |
| 20260903151228 | 33 | 141 | 4.8 | 4.8 | 0.00 | 0.00 | 0.00 | 66 | 1000.6 |
| 20260903151128 | 33 | 221 | 3.2 | 3.2 | 0.00 | 0.00 | 0.00 | 64 | 1000.6 |
| 20260903151028 | 33 | 220 | 0.0 | 1.6 | 0.00 | 0.00 | 0.00 | 64 | 1000.5 |
| 20260903150859 | 33 | 220 | 0.0 | 0.0 | 0.00 | 0.00 | 0.00 | 63 | 1000.6 |
| 20260903150758 | 33 | 220 | 0.0 | 0.0 | 0.00 | 0.00 | 0.00 | 62 | 1000.6 |
| 20260903150658 | 33 | 220 | 0.0 | 0.0 | 0.00 | 0.00 | 0.00 | 64 | 1000.5 |
| 20260903150558 | 33 | 220 | 1.6 | 3.2 | 0.00 | 0.00 | 0.00 | 64 | 1000.5 |
| 20260903150430 | 33 | 219 | 0.0 | 0.0 | 0.00 | 0.00 | 0.00 | 65 | 1000.4 |
| 20260903150328 | 33 | 192 | 0.0 | 1.6 | 0.00 | 0.00 | 0.00 | 65 | 1000.5 |
| 20260903150228 | 33 | 190 | 1.6 | 3.2 | 0.00 | 0.00 | 0.00 | 64 | 1000.4 |
| 20260903150128 | 33 | 212 | 4.8 | 4.8 | 0.00 | 0.00 | 0.00 | 62 | 1000.4 |
| 20260903145959 | 33 | 222 | 1.6 | 3.2 | 0.00 | 0.00 | 0.00 | 66 | 1000.4 |
| 20260903145858 | 33 | 191 | 0.0 | 1.6 | 0.00 | 0.00 | 0.00 | 64 | 1000.2 |
| 20260903145758 | 33 | 177 | 1.6 | 3.2 | 0.00 | 0.00 | 0.00 | 64 | 1000.2 |
| 20260903145658 | 33 | 182 | 3.2 | 4.8 | 0.00 | 0.00 | 0.00 | 64 | 1000.6 |
| 20260903145558 | 33 | 186 | 0.0 | 0.0 | 0.00 | 0.00 | 0.00 | 67 | 1000.4 |
| 20260903145458 | 33 | 187 | 0.0 | 1.6 | 0.00 | 0.00 | 0.00 | 67 | 1000.2 |
| 20260903145329 | 33 | 225 | 3.2 | 4.8 | 0.00 | 0.00 | 0.00 | 64 | 1000.4 |
| 20260903145228 | 33 | 225 | 3.2 | 3.2 | 0.00 | 0.00 | 0.00 | 64 | 1000.3 |
| 20260903145128 | 33 | 226 | 0.0 | 0.0 | 0.00 | 0.00 | 0.00 | 65 | 1000.4 |
| 20260903145028 | 33 | 226 | 0.0 | 1.6 | 0.00 | 0.00 | 0.00 | 65 | 1000.5 |
| 20260903144928 | 33 | 226 | 0.0 | 1.6 | 0.00 | 0.00 | 0.00 | 66 | 1000.3 |
| 20260903144758 | 33 | 171 | 3.2 | 4.8 | 0.00 | 0.00 | 0.00 | 63 | 1000.3 |
| 20260903144629 | 32 | 204 | 1.6 | 3.2 | 0.00 | 0.00 | 0.00 | 64 | 1000.2 |
| 20260903144528 | 32 | 206 | 1.6 | 3.2 | 0.00 | 0.00 | 0.00 | 65 | 1000.4 |
| 20260903144428 | 32 | 206 | 0.0 | 1.6 | 0.00 | 0.00 | 0.00 | 65 | 1000.4 |
| 20260903144328 | 32 | 206 | 0.0 | 1.6 | 0.00 | 0.00 | 0.00 | 68 | 1000.5 |
| 20260903144159 | 32 | 206 | 1.6 | 3.2 | 0.00 | 0.00 | 0.00 | 67 | 1000.6 |
| 20260903144058 | 32 | 207 | 0.0 | 0.0 | 0.00 | 0.00 | 0.00 | 67 | 1000.3 |
| 20260903143958 | 32 | 206 | 0.0 | 0.0 | 0.00 | 0.00 | 0.00 | 67 | 1000.4 |
| 20260903143858 | 32 | 206 | 0.0 | 0.0 | 0.00 | 0.00 | 0.00 | 68 | 1000.2 |
| 20260903143758 | 32 | 206 | 1.6 | 1.6 | 0.00 | 0.00 | 0.00 | 67 | 1000.2 |
| 20260903143658 | 32 | 206 | 1.6 | 1.6 | 0.00 | 0.00 | 0.00 | 66 | 1000.5 |
| 20260903143528 | 32 | 220 | 0.0 | 1.6 | 0.00 | 0.00 | 0.00 | 67 | 1000.3 |
| 20260903143428 | 32 | 220 | 0.0 | 1.6 | 0.00 | 0.00 | 0.00 | 70 | 1000.5 |
| 20260903143328 | 32 | 220 | 0.0 | 0.0 | 0.00 | 0.00 | 0.00 | 70 | 1000.6 |
| 20260903143228 | 32 | 220 | 0.0 | 0.0 | 0.00 | 0.00 | 0.00 | 67 | 1000.4 |
| 20260903143128 | 32 | 220 | 0.0 | 1.6 | 0.00 | 0.00 | 0.00 | 69 | 1000.6 |
| 20260903143028 | 32 | 220 | 0.0 | 1.6 | 0.00 | 0.00 | 0.00 | 67 | 1000.3 |
| 20260903142928 | 32 | 221 | 0.0 | 0.0 | 0.00 | 0.00 | 0.00 | 67 | 1000.4 |
| 20260903142758 | 32 | 221 | 0.0 | 0.0 | 0.00 | 0.00 | 0.00 | 67 | 1000.4 |
| 20260903142629 | 32 | 221 | 0.0 | 1.6 | 0.00 | 0.00 | 0.00 | 68 | 1000.4 |
| 20260903142528 | 32 | 221 | 0.0 | 0.0 | 0.00 | 0.00 | 0.00 | 67 | 1000.5 |
| 20260903142359 | 32 | 221 | 1.6 | 3.2 | 0.00 | 0.00 | 0.00 | 67 | 1000.4 |
| 20260903142258 | 32 | 220 | 0.0 | 0.0 | 0.00 | 0.00 | 0.00 | 70 | 1000.5 |
| 20260903142158 | 32 | 220 | 0.0 | 0.0 | 0.00 | 0.00 | 0.00 | 69 | 1000.5 |
| 20260903142058 | 31 | 220 | 0.0 | 0.0 | 0.00 | 0.00 | 0.00 | 70 | 1000.4 |
| 20260903141958 | 31 | 220 | 0.0 | 1.6 | 0.00 | 0.00 | 0.00 | 69 | 1000.6 |
| 20260903141858 | 31 | 220 | 0.0 | 0.0 | 0.00 | 0.00 | 0.00 | 71 | 1000.5 |
| 20260903141729 | 31 | 220 | 0.0 | 0.0 | 0.00 | 0.00 | 0.00 | 70 | 1000.5 |
| 20260903141628 | 31 | 220 | 1.6 | 1.6 | 0.00 | 0.00 | 0.00 | 70 | 1000.4 |
| 20260903141528 | 31 | 220 | 1.6 | 3.2 | 0.00 | 0.00 | 0.00 | 70 | 1000.6 |
| 20260903141428 | 31 | 221 | 3.2 | 4.8 | 0.00 | 0.00 | 0.00 | 71 | 1000.7 |
| 20260903141328 | 31 | 218 | 1.6 | 3.2 | 0.00 | 0.00 | 0.00 | 72 | 1000.8 |
| 20260903141228 | 31 | 212 | 0.0 | 0.0 | 0.00 | 0.00 | 0.00 | 71 | 1000.6 |
| 20260903141058 | 31 | 213 | 0.0 | 0.0 | 0.00 | 0.00 | 0.00 | 71 | 1000.6 |
| 20260903140928 | 31 | 200 | 0.0 | 3.2 | 0.00 | 0.00 | 0.00 | 70 | 1000.4 |
| 20260903140828 | 31 | 217 | 0.0 | 0.0 | 0.00 | 0.00 | 0.00 | 70 | 1000.7 |
| 20260903140728 | 31 | 218 | 0.0 | 0.0 | 0.00 | 0.00 | 0.00 | 72 | 1000.5 |
| 20260903140559 | 31 | 218 | 0.0 | 1.6 | 0.00 | 0.00 | 0.00 | 71 | 1000.6 |
| 20260903140458 | 31 | 218 | 0.0 | 0.0 | 0.00 | 0.00 | 0.00 | 72 | 1000.8 |
| 20260903140358 | 31 | 218 | 0.0 | 0.0 | 0.00 | 0.00 | 0.00 | 73 | 1000.5 |
| 20260903140258 | 31 | 218 | 0.0 | 1.6 | 0.00 | 0.00 | 0.00 | 73 | 1000.5 |
| 20260903140158 | 31 | 219 | 0.0 | 0.0 | 0.00 | 0.00 | 0.00 | 71 | 1000.6 |
| 20260903140058 | 30 | 219 | 0.0 | 1.6 | 0.00 | 0.00 | 0.00 | 73 | 1000.5 |
| 20260903135958 | 30 | 160 | 3.2 | 3.2 | 0.00 | 0.00 | 0.00 | 71 | 1000.8 |
| 20260903135858 | 30 | 221 | 0.0 | 0.0 | 0.00 | 0.00 | 0.00 | 73 | 1000.7 |
| 20260903135758 | 31 | 164 | 0.0 | 1.6 | 0.00 | 0.00 | 0.00 | 73 | 1000.5 |
| 20260903135628 | 30 | 201 | 1.6 | 3.2 | 0.00 | 0.00 | 0.00 | 72 | 1000.4 |
| 20260903135459 | 30 | 203 | 0.0 | 1.6 | 0.00 | 0.00 | 0.00 | 74 | 1000.7 |
| 20260903135358 | 30 | 237 | 0.0 | 0.0 | 0.00 | 0.00 | 0.00 | 74 | 1000.7 |
| 20260903135229 | 30 | 214 | 0.0 | 1.6 | 0.00 | 0.00 | 0.00 | 73 | 1000.7 |
| 20260903135058 | 30 | 214 | 0.0 | 0.0 | 0.00 | 0.00 | 0.00 | 74 | 1000.6 |
| 20260903134928 | 30 | 213 | 1.6 | 3.2 | 0.00 | 0.00 | 0.00 | 74 | 1000.6 |
| 20260903134759 | 30 | 221 | 1.6 | 3.2 | 0.00 | 0.00 | 0.00 | 73 | 1000.7 |
| 20260903134629 | 30 | 227 | 0.0 | 1.6 | 0.00 | 0.00 | 0.00 | 73 | 1000.7 |
| 20260903134500 | 30 | 206 | 0.0 | 0.0 | 0.00 | 0.00 | 0.00 | 75 | 1000.6 |
| 20260903134359 | 30 | 206 | 0.0 | 0.0 | 0.00 | 0.00 | 0.00 | 75 | 1000.6 |
| 20260903134258 | 30 | 206 | 0.0 | 0.0 | 0.00 | 0.00 | 0.00 | 74 | 1000.6 |
| 20260903134158 | 30 | 206 | 0.0 | 1.6 | 0.00 | 0.00 | 0.00 | 75 | 1000.6 |
| 20260903134058 | 30 | 199 | 0.0 | 0.0 | 0.00 | 0.00 | 0.00 | 77 | 1000.7 |
| 20260903133929 | 29 | 198 | 0.0 | 0.0 | 0.00 | 0.00 | 0.00 | 78 | 1000.8 |
| 20260903133758 | 29 | 198 | 1.6 | 1.6 | 0.00 | 0.00 | 0.00 | 77 | 1000.8 |
| 20260903133658 | 29 | 163 | 0.0 | 1.6 | 0.00 | 0.00 | 0.00 | 77 | 1000.7 |
| 20260903133558 | 28 | 164 | 1.6 | 4.8 | 0.00 | 0.00 | 0.00 | 77 | 1000.7 |
| 20260903133429 | 28 | 162 | 0.0 | 0.0 | 0.00 | 0.00 | 0.00 | 80 | 1000.7 |
| 20260903133328 | 28 | 163 | 1.6 | 3.2 | 0.00 | 0.00 | 0.00 | 78 | 1000.7 |
| 20260903133228 | 28 | 162 | 0.0 | 1.6 | 0.00 | 0.00 | 0.00 | 80 | 1000.6 |
| 20260903133128 | 28 | 162 | 0.0 | 0.0 | 0.00 | 0.00 | 0.00 | 79 | 1000.9 |
| 20260903133028 | 28 | 162 | 1.6 | 3.2 | 0.00 | 0.00 | 0.00 | 79 | 1000.7 |
| 20260903132858 | 28 | 162 | 0.0 | 1.6 | 0.00 | 0.00 | 0.00 | 79 | 1000.7 |
| 20260903132758 | 28 | 163 | 3.2 | 4.8 | 0.00 | 0.00 | 0.00 | 78 | 1000.7 |
| 20260903132628 | 28 | 164 | 1.6 | 1.6 | 0.00 | 0.00 | 0.00 | 78 | 1000.7 |
| 20260903132458 | 29 | 165 | 3.2 | 4.8 | 0.00 | 0.00 | 0.00 | 78 | 1001.0 |
| 20260903132329 | 29 | 161 | 0.0 | 0.0 | 0.00 | 0.00 | 0.00 | 79 | 1000.7 |
| 20260903132228 | 28 | 162 | 0.0 | 0.0 | 0.00 | 0.00 | 0.00 | 79 | 1000.8 |
| 20260903132059 | 28 | 162 | 0.0 | 0.0 | 0.00 | 0.00 | 0.00 | 79 | 1000.6 |
| 20260903131958 | 28 | 163 | 3.2 | 3.2 | 0.00 | 0.00 | 0.00 | 78 | 1000.5 |
| 20260903131858 | 28 | 162 | 1.6 | 3.2 | 0.00 | 0.00 | 0.00 | 79 | 1000.8 |
| 20260903131758 | 28 | 162 | 0.0 | 1.6 | 0.00 | 0.00 | 0.00 | 78 | 1000.7 |
| 20260903131658 | 28 | 162 | 0.0 | 1.6 | 0.00 | 0.00 | 0.00 | 79 | 1000.8 |
| 20260903131558 | 28 | 159 | 0.0 | 3.2 | 0.00 | 0.00 | 0.00 | 79 | 1000.6 |